GFSNE_prec_cthk_000.txt.gz
RH
63 67 69 71 75 75 74 74 79 72 69 65 61 66 66 70 76 77 78 74 74 75 75 78 79 76 76 73 67 69 70 67 59 51 47 45 42 40
70 71 71 72 74 75 77 74 79 78 74 73 71 69 74 69 80 86 82 81 79 78 78 81 81 81 80 77 70 73 71 63 56 51 45 44 39 32
72 74 77 80 83 82 82 82 83 82 84 61 75 80 78 79 82 92 87 85 84 79 76 81 84 84 81 74 71 72 66 63 56 50 42 42 33 25
69 72 79 85 86 93 93 93 92 92 89 76 78 83 80 85 87 93 95 89 90 78 77 79 80 82 88 75 71 69 66 62 55 46 38 31 28 21
70 73 72 76 78 82 88 87 85 88 85 90 78 90 88 88 91 96 98 95 95 88 77 80 82 89 91 74 71 68 66 59 50 44 32 23 22 24
62 64 66 69 72 76 82 81 82 90 88 88 86 88 85 86 93 97 94 94 98 96 87 86 86 93 83 73 72 69 64 56 47 37 26 26 22 23
56 60 64 66 67 68 80 78 83 88 95 98 92 92 87 88 91 97 97 97 96 98 95 90 95 90 76 73 71 68 61 51 42 30 29 23 23 25
48 50 57 61 64 66 71 79 83 86 94 98 97 87 88 91 94 97 98 98 98 98 98 93 93 83 74 74 71 66 57 47 36 23 20 22 23 28
50 50 51 57 64 70 71 74 76 80 88 98 92 93 89 90 94 96 98 98 97 98 98 97 86 78 75 75 68 61 52 42 26 19 13 21 27 32
48 50 53 54 61 72 79 76 76 77 89 94 91 90 89 99 97 98 97 98 97 98 97 90 86 80 75 73 66 56 47 34 21 12 12 17 27 37
46 48 52 55 56 63 71 78 84 90 89 87 97 91 98 95 98 98 98 98 98 98 93 87 80 75 76 70 61 47 34 22 14 12 16 24 32 40
39 39 47 54 56 63 69 74 89 93 93 92 94 95 97 98 98 99 96 98 98 96 94 90 83 79 69 65 51 39 24 14 13 17 23 30 38 43
42 42 45 53 56 63 70 81 93 97 92 95 95 94 97 98 99 98 99 99 97 97 92 82 81 74 66 53 40 28 15 12 16 19 25 32 40 48
47 49 54 61 63 64 72 82 95 98 94 95 97 97 99 97 99 98 99 98 97 93 90 90 79 68 55 43 30 18 13 16 21 27 33 41 44 49
53 57 64 71 72 70 75 83 92 94 96 97 99 96 99 99 98 98 99 95 92 95 90 85 68 57 46 33 20 14 17 24 30 35 39 42 45 47
54 62 72 79 80 78 78 82 92 98 97 98 99 98 99 98 99 97 95 98 98 96 86 71 59 49 36 22 15 18 23 29 33 36 39 43 47 51
57 66 71 76 77 83 85 90 97 97 95 99 99 98 98 99 98 97 98 98 98 87 71 61 51 38 23 19 17 23 29 32 34 39 43 47 51 55
61 67 72 79 84 87 93 94 95 97 98 98 98 98 98 98 99 98 98 98 89 72 63 52 39 25 19 17 23 28 32 36 40 45 49 51 54 62
63 69 73 83 94 94 95 91 94 97 98 97 98 98 98 98 98 98 98 92 76 64 53 42 27 20 18 23 28 31 35 41 47 51 55 60 64 71
60 67 71 89 97 97 94 94 97 97 98 98 97 97 97 97 98 98 96 78 65 53 43 29 21 19 22 28 31 36 42 47 53 61 68 74 77 77
60 67 68 88 97 97 97 97 97 98 98 98 97 97 97 97 98 95 79 64 53 43 29 22 20 23 28 29 35 42 52 58 62 73 84 87 90 90
56 66 68 85 97 97 97 97 97 97 97 98 97 97 98 97 97 79 63 52 43 29 24 19 23 28 30 37 44 52 64 82 91 91 87 88 90 91
54 63 70 84 95 97 97 97 97 97 97 97 97 97 98 98 83 64 51 43 30 23 18 23 28 31 37 47 62 79 88 86 83 82 85 86 81 81

GFSNE_prec_cthk_003.txt.gz
RH
67 72 80 79 85 85 87 90 93 89 81 79 74 70 69 71 72 72 73 74 77 82 85 80 75 75 78 81 83 81 82 77 71 70 69 63 57 56
58 59 63 71 77 79 84 87 93 96 89 86 78 76 79 78 74 74 77 81 83 89 93 90 87 91 86 90 87 86 85 82 72 72 65 61 58 60
59 64 65 67 69 73 74 75 83 89 93 77 80 78 78 78 81 77 77 81 86 91 91 92 95 97 96 89 95 87 88 84 74 69 64 61 62 58
59 61 61 62 64 66 69 71 75 82 91 86 80 84 83 80 84 76 82 82 83 93 92 92 93 97 98 96 97 91 89 88 71 68 64 63 56 54
50 52 52 52 54 56 58 61 62 63 74 85 81 86 84 85 92 88 90 91 86 89 98 91 92 99 98 98 97 97 93 78 69 67 65 62 52 42
48 49 47 48 52 53 57 61 65 68 71 73 79 78 85 80 87 92 88 91 95 95 93 98 93 96 96 99 98 94 92 72 70 69 66 58 47 41
50 49 48 46 47 50 56 59 69 73 72 71 71 74 80 91 80 98 96 95 92 95 98 97 97 96 98 98 95 97 80 76 72 69 62 52 45 41
51 44 44 46 48 51 53 58 64 69 75 79 72 73 68 80 95 98 91 98 98 93 97 94 99 95 98 99 97 86 80 75 73 67 56 45 41 34
48 46 45 48 45 48 48 48 50 54 69 74 73 73 75 76 94 99 88 90 95 95 98 97 99 98 98 98 91 88 81 75 70 59 48 40 30 26
44 45 43 40 42 47 53 49 48 49 53 60 67 69 81 85 87 92 91 98 98 97 98 98 99 99 98 97 95 80 77 70 59 51 43 29 23 23
43 48 43 40 43 48 56 55 48 44 51 56 60 62 73 89 97 97 95 98 98 98 98 99 99 98 97 95 83 80 69 60 53 49 35 23 21 25
40 42 42 44 44 49 60 59 54 50 54 54 57 62 75 91 96 99 97 99 99 99 99 98 99 97 96 94 82 70 57 49 44 35 25 25 26 28
36 37 43 46 49 56 65 66 64 63 59 62 62 79 90 91 95 96 99 99 99 98 99 98 98 98 89 80 72 58 48 42 32 22 18 20 25 29
37 37 41 47 57 64 64 68 72 74 71 69 68 82 95 96 94 97 98 99 98 98 98 98 97 95 87 72 60 49 44 32 23 19 20 23 28 32
38 32 38 54 62 64 67 72 80 82 77 75 79 90 95 98 98 98 98 98 98 98 98 98 98 86 72 60 48 42 33 24 20 23 27 31 34 36
31 28 43 58 68 68 71 78 80 80 80 84 88 93 98 98 98 98 98 98 98 98 98 98 85 73 57 50 44 31 23 22 25 29 32 35 38 41
34 37 44 58 71 73 79 84 81 84 86 90 93 96 98 98 98 98 98 98 98 98 97 84 71 56 50 45 30 23 24 27 31 32 36 39 44 48
36 38 47 67 73 72 83 86 89 89 89 92 95 97 98 98 97 97 98 98 97 97 84 66 56 50 42 28 25 24 28 31 33 36 41 44 48 54
36 38 51 67 72 75 87 92 95 95 95 96 97 97 97 97 97 97 97 97 96 84 64 57 48 37 26 26 26 29 29 30 36 42 50 56 63 69
37 37 53 65 71 75 92 97 97 97 97 97 97 97 97 97 97 97 97 97 82 63 54 44 34 27 27 27 28 29 33 39 49 62 75 81 82 87
35 35 52 63 71 77 97 97 97 97 97 97 97 97 97 97 97 97 97 74 62 51 39 32 28 25 26 27 31 38 52 65 77 82 83 82 83 87
35 36 51 62 70 84 97 97 97 96 97 97 97 97 97 97 97 95 68 58 47 36 29 28 23 25 29 36 51 69 84 87 81 71 64 63 63 73
36 36 53 60 69 87 97 97 97 97 97 97 97 97 97 96 93 64 53 43 33 30 24 23 25 33 50 67 79 82 80 66 55 57 63 67 71 80

GFSNE_prec_cthk_006.txt.gz
RH
49 53 58 61 63 64 67 75 81 78 74 76 83 84 80 78 76 77 79 74 78 79 76 80 79 78 73 77 83 83 89 81 80 81 79 80 75 68
42 48 53 58 60 62 64 69 77 84 78 72 70 77 83 82 80 84 82 84 84 79 78 86 83 85 83 86 88 86 87 89 87 87 89 85 75 67
49 52 52 54 55 58 60 61 62 67 73 55 65 66 71 72 80 80 87 88 85 88 84 82 84 87 91 92 92 93 93 93 93 94 91 90 79 70
54 56 56 57 55 55 56 57 58 59 67 66 55 59 62 60 65 71 78 83 88 91 91 86 85 88 90 94 95 97 97 99 97 97 96 89 85 71
53 54 55 56 55 55 54 56 56 55 58 63 56 58 59 59 61 63 69 78 85 96 93 90 91 87 92 95 99 96 97 97 97 99 97 88 78 74
48 52 53 52 51 47 51 53 55 59 60 63 68 65 64 63 68 66 65 69 74 93 97 98 91 89 99 98 97 97 98 99 99 99 96 91 79 75
44 43 42 44 45 52 51 48 54 61 60 62 62 69 72 69 72 71 68 68 65 94 95 98 98 96 93 97 98 94 98 98 99 98 96 81 77 71
43 43 41 42 43 41 42 46 50 58 59 60 57 55 54 59 69 74 77 77 74 70 83 90 97 96 96 97 99 96 98 99 99 96 95 83 80 77
39 38 36 36 43 42 39 40 43 50 58 63 60 55 56 55 62 66 69 70 79 83 84 94 97 97 99 96 98 99 99 98 97 95 90 84 77 69
31 30 27 32 35 40 40 42 42 49 54 60 61 54 56 56 62 66 71 70 72 83 87 95 96 98 97 98 98 98 98 98 98 95 86 77 70 60
19 16 22 29 31 42 52 52 51 51 56 61 59 56 57 58 66 74 74 76 71 82 93 97 99 96 99 99 98 98 98 98 98 89 75 69 59 52
27 27 31 31 33 34 44 53 61 64 64 58 58 57 64 64 67 75 78 81 86 90 99 99 98 99 98 98 98 98 98 98 86 76 67 58 54 43
42 39 35 29 29 29 36 61 71 71 69 68 61 63 67 68 70 70 79 92 92 98 98 99 98 98 98 98 98 98 96 86 77 64 59 55 43 34
43 39 32 31 30 36 42 60 71 76 80 71 68 74 75 72 73 79 93 98 99 98 96 98 98 98 98 98 98 96 82 67 58 59 48 37 31 32
44 39 32 33 35 35 38 62 73 84 82 74 82 81 82 77 84 98 98 98 98 98 98 98 98 98 98 97 86 73 66 59 50 39 33 29 26 24
41 34 31 33 32 34 42 71 81 87 80 87 82 83 84 89 98 98 98 98 97 97 98 97 97 97 90 79 68 62 55 43 35 32 30 28 28 30
42 35 28 26 27 35 54 76 81 87 93 86 84 87 93 96 97 97 97 97 97 97 97 97 95 83 73 66 55 46 37 34 34 33 30 30 30 32
42 38 31 28 32 46 69 75 79 92 91 90 93 95 95 97 97 97 97 97 97 97 97 90 79 69 55 48 42 35 36 35 32 31 30 32 37 41
42 41 32 30 37 60 71 76 85 97 97 97 97 93 96 97 97 97 97 97 97 97 87 74 59 49 45 35 35 35 35 33 31 30 34 38 48 56
47 42 31 32 45 63 70 79 93 97 97 97 97 97 97 97 97 97 97 97 97 82 66 57 47 37 34 36 36 31 29 31 35 43 57 73 82 85
48 40 33 35 53 62 71 84 97 97 97 97 97 97 96 97 97 97 97 95 74 61 51 40 37 34 31 30 31 36 44 59 77 87 91 92 88 80
47 40 32 40 55 61 75 89 97 97 97 97 97 97 97 97 97 97 86 65 54 46 38 33 29 29 31 41 60 73 79 80 76 66 61 61 69 67
46 40 34 44 56 65 79 95 97 97 97 97 97 97 97 97 93 67 55 46 40 33 27 27 35 54 69 79 78 68 60 49 45 58 81 84 81 81

GFSNE_prec_cthk_009.txt.gz
RH
42 44 47 47 49 54 60 67 78 75 64 61 68 67 70 73 77 79 81 81 85 85 85 88 84 81 79 80 80 80 72 76 83 90 96 95 93 85
45 46 48 51 53 57 62 67 71 78 80 62 65 66 67 68 67 67 65 72 77 87 91 91 91 93 87 86 83 85 82 78 83 92 97 97 95 86
39 43 45 52 56 59 64 64 63 66 72 57 60 58 57 58 60 62 63 64 64 67 73 80 91 95 96 92 91 90 87 84 86 92 98 97 97 92
26 32 38 43 43 46 48 51 52 56 66 66 53 55 58 59 57 59 63 64 66 62 65 70 76 89 95 96 91 87 90 91 92 96 95 94 97 97
30 38 44 43 42 42 42 47 47 42 43 51 56 57 58 58 60 61 64 65 63 68 68 68 73 76 88 96 96 90 91 94 94 97 97 97 98 99
33 40 41 42 43 41 46 50 45 40 44 49 51 53 53 52 61 65 63 70 74 66 68 65 70 71 78 87 95 95 96 93 98 99 99 97 95 97
27 29 30 31 31 34 41 37 38 37 38 43 48 52 52 55 60 59 58 56 55 55 55 58 67 70 72 76 94 95 99 95 98 97 99 99 99 98
23 24 26 27 28 31 32 35 40 46 42 42 43 48 48 61 60 58 58 57 48 51 53 56 64 60 74 74 89 92 97 98 99 99 98 98 99 99
23 22 19 20 22 25 24 25 26 30 38 47 51 53 56 59 61 59 60 59 53 49 57 51 57 55 66 88 94 92 97 99 99 99 99 98 99 98
25 24 25 27 29 31 30 32 32 24 22 35 54 63 62 61 66 65 60 59 53 49 58 57 59 57 60 88 97 96 98 98 99 99 98 98 98 98
31 32 34 33 33 35 37 34 31 25 27 36 46 58 64 67 72 74 68 68 59 54 56 64 62 67 68 89 99 98 98 98 98 99 98 98 98 98
45 44 39 37 38 37 39 39 45 46 45 38 40 59 69 73 76 81 79 73 67 61 56 72 84 79 76 98 98 99 99 98 98 98 98 98 98 89
47 45 40 42 45 37 39 43 45 47 39 46 56 65 72 80 81 79 79 79 73 73 73 76 88 95 97 98 99 98 98 97 98 98 98 96 87 77
51 48 48 46 42 38 34 35 39 42 46 60 71 75 78 77 76 79 83 82 79 76 84 93 95 98 98 98 98 98 98 97 97 97 96 86 81 74
52 51 47 44 43 33 29 37 41 46 61 83 86 85 83 83 86 87 90 83 83 93 97 98 98 98 98 98 98 98 97 97 97 89 77 74 65 57
52 48 44 42 42 34 29 35 44 62 84 85 85 89 93 89 90 91 87 94 97 97 97 97 97 98 98 98 98 97 97 91 83 76 66 60 55 47
55 47 42 44 41 31 31 37 55 76 84 87 94 94 93 92 90 94 97 97 97 97 97 98 97 97 92 89 84 83 78 67 61 55 48 43 38 34
56 50 46 48 43 34 34 44 67 78 85 96 97 97 93 93 96 97 97 97 97 97 97 97 94 89 85 76 68 61 56 48 42 41 38 37 37 32
56 51 50 49 42 35 42 62 71 82 94 97 97 97 97 97 97 97 97 97 97 97 96 87 79 69 61 58 51 45 41 43 41 40 37 32 31 33
61 55 51 49 42 39 54 67 76 90 97 97 97 97 97 97 97 97 97 97 97 95 83 69 59 51 46 43 44 45 44 40 36 32 32 34 39 45
61 53 52 48 41 48 62 72 86 97 97 97 97 97 97 97 97 97 97 97 85 71 58 49 43 45 50 47 43 38 36 37 42 49 58 70 79 87
57 52 51 46 43 55 66 77 96 97 97 97 97 97 97 97 97 97 89 72 63 53 51 48 48 45 43 41 49 61 72 79 82 80 76 72 67 65
54 53 49 42 48 61 73 89 97 97 97 97 97 97 97 97 83 70 59 54 51 48 44 42 49 64 73 76 74 66 58 50 44 44 53 65 76 79

GFSNE_prec_cthk_012.txt.gz
RH
28 32 33 34 39 46 55 62 70 69 56 43 55 54 60 60 60 64 66 70 76 76 80 85 89 96 99 98 95 90 87 87 89 87 81 83 92 96
22 21 21 24 31 38 40 44 47 58 61 43 43 50 55 59 59 61 60 59 58 62 68 75 80 83 87 96 97 94 92 93 93 92 90 84 81 92
20 21 25 30 38 42 42 45 45 49 61 46 47 42 40 42 47 55 61 65 65 60 61 64 68 76 79 84 92 96 98 95 96 96 93 95 87 82
24 28 32 35 37 39 39 41 42 51 55 50 36 34 35 36 40 44 48 51 58 63 65 66 72 68 78 77 79 83 92 97 98 98 98 97 95 84
34 33 30 30 30 31 31 32 41 49 48 43 33 30 28 28 31 36 41 46 50 56 61 69 74 84 77 77 77 74 77 84 96 97 97 99 99 91
35 32 29 28 27 28 29 30 39 45 46 46 41 34 28 26 32 32 34 43 49 52 56 59 59 63 73 70 71 73 75 77 84 86 86 97 97 99
28 26 25 23 25 28 34 31 35 39 43 44 44 37 33 27 30 33 39 38 49 57 59 55 56 55 59 56 61 72 76 76 81 80 83 94 98 99
24 23 24 25 28 32 34 35 42 44 42 39 40 34 32 29 32 38 46 45 41 56 61 59 62 61 55 46 45 54 63 74 77 76 85 94 99 95
24 25 27 31 36 37 35 39 42 44 43 39 40 36 36 32 43 46 44 50 47 50 63 55 59 54 54 49 45 47 55 63 76 79 85 96 98 99
30 32 38 36 36 44 48 49 49 42 35 42 44 51 54 59 56 46 54 56 52 53 61 59 61 56 54 51 49 51 54 60 75 83 92 96 99 99
32 34 44 41 42 51 54 51 45 38 33 31 39 46 49 44 49 60 62 69 59 58 59 61 57 57 53 48 52 52 59 62 75 96 98 98 99 99
38 41 40 47 49 52 52 54 50 38 34 32 33 37 44 54 63 75 76 72 75 67 64 68 62 60 56 53 56 65 65 67 82 98 98 98 98 98
45 37 39 49 51 49 50 51 48 45 36 37 40 46 58 72 79 86 87 83 78 72 71 70 61 63 67 64 78 81 75 87 98 98 98 98 98 98
42 42 53 55 52 46 47 49 45 39 40 45 51 68 81 86 88 87 87 87 85 78 76 83 72 73 74 83 89 88 87 95 98 98 98 98 97 98
46 58 59 55 48 42 45 44 36 36 43 51 73 85 86 87 89 89 90 88 85 86 87 86 86 84 85 91 96 98 98 97 98 98 97 97 97 97
52 58 58 52 44 45 44 38 33 41 52 71 83 85 89 93 95 92 88 87 89 93 94 96 96 97 97 97 97 97 98 97 98 97 97 97 97 93
54 51 50 50 45 43 43 35 35 44 67 84 90 95 95 94 92 91 91 91 95 96 96 96 96 97 97 97 97 97 97 97 97 97 97 96 92 83
49 48 56 54 47 47 42 36 42 65 84 92 97 97 95 91 90 93 95 96 97 97 97 97 97 97 97 97 97 97 97 95 97 92 85 76 73 69
50 57 58 53 49 48 41 45 65 81 93 97 97 96 95 93 96 96 97 97 97 97 97 97 94 88 77 80 87 76 68 64 68 68 64 62 54 46
56 60 57 53 51 45 46 63 77 93 98 97 97 97 98 98 97 97 97 97 97 97 90 76 69 65 62 59 58 55 52 51 51 49 45 44 44 41
59 59 56 52 49 46 59 73 91 97 97 97 98 98 97 97 97 97 97 96 89 74 64 59 56 56 57 55 53 51 49 48 47 43 39 37 37 38
62 58 53 50 46 54 70 89 98 97 97 98 97 97 98 97 97 93 84 78 67 60 58 61 63 61 57 54 52 52 51 52 55 61 69 77 82 84
60 54 50 46 50 66 87 98 98 98 98 97 97 98 91 81 74 69 64 60 60 61 64 67 76 84 85 81 80 78 74 70 68 67 64 61 58 59

GFSNE_prec_cthk_015.txt.gz
RH
19 18 19 20 24 30 36 50 53 56 38 26 36 40 47 45 44 45 44 48 58 63 68 64 61 65 78 87 90 91 93 97 94 97 94 93 93 92
19 20 22 24 27 32 37 43 51 57 56 37 34 42 44 39 37 38 39 37 37 40 45 56 68 69 68 72 81 85 85 89 94 92 93 93 93 94
20 22 27 28 26 25 28 33 36 38 42 31 36 38 40 34 30 30 24 23 29 33 37 39 45 55 73 70 69 75 82 85 86 95 97 97 98 97
19 23 22 23 23 25 27 31 37 41 43 48 50 40 37 37 36 34 27 26 21 20 26 38 40 49 52 71 76 74 77 82 84 88 92 98 98 97
18 19 18 19 19 21 24 28 34 37 42 46 46 43 43 46 39 36 36 27 23 21 24 25 31 37 45 56 70 79 81 83 80 83 85 88 91 91
19 19 19 21 22 26 31 34 39 40 39 40 41 38 33 32 34 32 29 26 23 26 31 31 27 29 38 50 58 70 78 83 85 80 78 79 86 90
18 19 21 23 27 34 40 38 42 40 44 46 43 45 41 32 32 31 34 28 28 37 37 26 33 31 38 49 59 58 59 77 72 71 76 79 80 81
21 21 24 28 33 37 37 39 46 54 52 56 54 49 43 42 42 44 49 52 51 44 34 32 43 40 39 43 52 60 60 65 59 64 66 74 69 70
27 29 28 35 40 38 37 45 44 43 43 51 53 54 51 39 47 51 57 62 63 48 38 45 44 48 46 48 55 58 61 59 58 58 57 62 67 69
33 32 36 39 39 43 47 53 41 33 38 43 49 47 47 45 47 51 49 47 42 40 58 62 55 55 54 54 56 61 62 57 55 52 52 56 59 61
33 37 42 37 43 51 61 52 41 35 36 43 44 44 44 43 52 56 54 63 58 55 72 73 64 65 63 58 58 62 61 54 52 52 53 54 53 71
38 42 39 42 48 59 64 57 44 39 42 39 31 31 43 48 59 69 72 77 80 70 75 76 76 74 65 61 60 64 63 57 59 58 60 60 61 70
44 40 40 43 57 55 57 54 51 51 44 35 33 41 49 62 76 87 90 92 87 83 83 80 78 77 71 61 61 63 64 62 68 67 68 66 71 87
49 45 49 51 49 47 50 55 50 49 39 38 44 53 75 87 88 93 94 90 85 81 84 80 72 74 71 71 67 66 67 67 72 76 73 73 75 95
51 52 53 46 45 46 51 52 48 43 41 46 61 83 91 91 92 94 95 96 89 85 83 83 81 82 81 78 73 75 78 75 84 80 80 84 92 98
55 51 48 47 50 52 50 47 45 43 52 69 83 91 95 96 95 94 93 90 92 91 92 93 90 89 87 84 81 80 86 88 89 87 89 97 97 97
56 51 50 52 51 50 48 45 41 53 72 88 96 97 96 95 94 91 91 91 94 97 97 97 97 97 96 90 86 92 97 98 95 94 96 97 97 98
58 58 55 57 57 51 46 41 57 75 93 98 98 98 97 94 91 92 96 97 97 97 97 97 98 98 97 97 97 97 97 97 98 97 97 97 97 97
62 59 60 59 55 50 48 63 78 97 98 98 98 98 98 95 97 97 97 97 97 97 97 97 95 90 97 97 97 97 97 97 97 97 97 97 97 96
64 63 61 55 51 50 63 79 98 98 98 98 98 98 97 98 97 97 97 97 97 96 86 80 79 76 83 93 91 86 88 97 97 96 96 92 88 85
63 61 56 50 51 60 77 98 98 98 98 98 98 98 98 98 98 97 96 92 85 75 69 66 66 64 61 59 58 59 64 70 73 66 65 65 64 62
61 56 50 51 61 74 97 98 98 98 98 98 98 97 95 90 86 82 73 67 62 62 68 72 73 70 66 62 62 63 63 62 60 56 54 53 52 51
57 51 50 60 71 97 98 98 98 98 98 98 90 78 70 65 64 67 73 82 86 86 88 92 92 93 91 89 83 79 77 74 71 70 72 70 68 66

GFSNE_prec_cthk_018.txt.gz
RH
22 21 19 19 20 21 25 27 32 28 24 14 21 21 26 29 28 49 56 46 41 38 33 33 38 46 55 61 66 63 65 70 80 86 89 91 93 98
18 18 17 16 18 22 20 21 25 33 34 18 17 19 24 27 42 46 49 43 38 43 36 30 32 38 33 37 44 58 64 63 65 74 80 88 88 91
16 16 16 22 22 22 23 24 25 30 39 28 34 23 24 27 32 36 39 46 46 39 31 41 35 24 27 34 34 40 48 59 71 67 71 80 87 89
16 17 19 24 22 25 26 27 36 38 44 44 36 35 33 34 37 39 38 39 43 39 38 29 26 24 21 18 27 35 37 46 62 71 69 75 80 91
19 21 25 27 27 28 30 36 38 40 41 44 38 40 37 36 39 40 43 40 35 37 37 38 37 36 32 25 20 22 30 34 51 65 71 75 81 89
24 28 29 29 29 29 34 38 41 41 39 45 48 46 43 36 40 39 35 29 38 43 40 43 43 45 44 29 27 25 28 32 38 56 73 82 84 86
29 29 30 30 30 33 41 42 44 41 45 52 50 44 35 34 40 39 54 44 34 40 48 52 50 56 52 36 37 34 31 34 38 49 71 81 79 81
30 30 32 34 36 37 42 44 45 51 54 62 56 45 38 47 45 46 44 46 43 30 48 52 52 47 35 30 32 34 33 35 39 40 57 70 78 77
33 34 33 36 40 43 43 44 52 55 58 64 62 50 48 45 50 47 46 55 49 38 54 49 37 42 37 40 39 38 41 41 41 42 48 60 62 67
38 39 39 41 44 45 44 47 56 52 50 53 57 55 54 52 50 48 49 51 47 53 69 63 60 57 58 55 50 47 51 48 47 42 47 58 54 63
37 40 42 45 46 49 56 58 56 47 43 49 56 52 48 40 44 53 55 64 64 75 88 85 82 74 71 64 57 54 60 55 49 44 47 54 53 58
36 44 47 49 50 53 61 55 51 45 47 49 43 40 37 41 52 66 81 85 89 93 99 95 87 77 77 69 74 72 68 63 54 47 48 52 50 50
43 45 48 54 56 54 56 57 56 53 53 48 41 38 44 59 78 93 94 90 90 94 97 94 88 85 86 81 74 73 70 65 62 55 53 60 52 60
46 48 54 57 55 59 59 57 56 58 50 46 50 59 70 82 89 96 96 94 97 96 98 93 88 86 86 83 82 78 75 74 67 65 67 70 66 67
51 56 58 58 57 55 58 57 56 51 54 66 73 82 94 95 96 96 96 95 95 94 96 95 88 86 83 81 81 83 79 75 73 74 75 74 75 75
56 58 55 59 59 57 56 53 51 62 71 79 89 97 97 97 97 96 94 92 94 96 97 97 97 94 90 86 86 82 77 76 79 79 80 82 83 81
60 54 57 58 57 56 52 51 59 74 86 97 98 98 95 95 92 93 95 97 98 98 98 97 97 96 93 93 88 85 83 83 85 83 87 88 89 86
57 59 61 60 57 53 53 59 76 96 98 98 98 98 98 98 98 98 98 98 97 97 97 97 97 97 96 94 95 86 85 85 85 91 95 91 89 91
58 63 61 57 53 56 66 85 98 98 98 98 98 98 98 98 98 98 98 98 98 97 97 97 92 97 97 97 92 92 95 97 97 98 97 95 92 96
64 63 58 54 55 67 87 98 98 98 98 98 98 98 98 98 98 98 98 98 96 87 82 87 89 97 97 97 97 97 98 98 98 97 97 97 97 97
64 59 54 55 68 88 98 98 98 98 98 98 98 96 92 90 87 83 80 80 78 74 78 81 78 77 89 96 97 97 97 98 98 97 97 97 97 97
62 54 55 69 89 98 98 98 98 98 98 93 84 79 79 79 80 83 88 91 89 84 84 86 85 77 69 67 75 93 97 97 97 97 95 93 93 89
55 56 68 88 98 98 98 98 98 94 84 83 87 94 97 95 95 97 98 98 98 98 97 97 96 80 72 69 69 69 69 66 62 62 63 64 66 66

GFSNE_prec_cthk_021.txt.gz
RH
18 16 16 15 16 16 21 22 25 23 17 14 17 17 21 24 24 29 24 28 35 39 32 28 34 45 47 38 38 43 60 60 69 72 77 79 78 83
17 16 16 16 17 19 22 24 25 28 28 22 19 20 22 33 31 32 35 32 28 31 34 35 38 40 43 45 49 42 40 47 59 62 68 73 78 84
17 18 19 20 22 23 25 25 28 36 39 30 30 28 27 29 29 37 37 40 34 35 37 38 37 35 31 39 37 37 34 33 36 49 50 60 74 80
18 19 22 24 25 28 28 30 37 38 39 44 36 35 29 32 37 42 38 36 31 27 33 35 36 39 39 32 40 39 45 43 43 37 37 36 51 66
18 22 24 28 29 30 34 37 36 40 46 51 43 36 38 45 44 40 34 26 28 33 38 41 41 40 43 40 34 41 41 45 35 35 36 40 40 54
20 24 30 32 33 35 37 41 43 45 44 49 44 46 51 48 51 47 35 37 36 33 36 32 30 34 36 46 50 52 56 44 37 40 39 39 42 47
23 30 33 34 37 43 45 46 47 50 49 49 48 56 54 49 44 45 47 40 32 42 39 34 42 43 41 56 59 56 56 42 34 34 35 35 39 45
32 33 34 34 39 42 44 44 53 57 57 60 59 62 55 48 45 50 52 48 38 36 41 37 46 44 42 45 53 56 55 46 41 39 35 33 34 37
34 35 36 38 43 43 43 47 53 58 65 62 62 62 55 48 55 55 51 46 37 37 54 49 60 60 63 62 59 53 51 52 46 40 38 36 37 36
38 42 44 42 42 48 53 55 57 60 56 60 63 59 57 60 60 55 45 42 48 60 74 68 84 80 84 74 68 61 58 53 53 43 42 40 38 37
43 46 47 48 47 52 60 62 56 50 54 58 59 59 61 57 53 49 52 66 70 80 92 91 93 97 90 80 69 67 65 63 52 46 45 43 38 34
42 45 48 47 49 61 65 63 59 55 58 54 53 50 49 46 54 65 75 85 88 87 92 93 95 97 82 78 80 78 72 63 59 49 42 35 33 32
48 46 45 47 60 63 63 64 61 61 58 54 50 53 59 69 81 90 95 94 91 88 93 90 94 97 92 93 85 75 75 73 62 56 52 44 38 35
50 47 46 57 60 59 63 62 61 60 53 58 67 73 83 93 95 96 97 98 98 95 94 98 95 97 92 89 87 84 80 75 66 67 64 54 49 50
49 49 52 57 55 59 57 61 57 56 67 75 84 94 96 96 96 96 94 92 94 92 96 97 96 92 88 84 86 87 82 77 78 76 70 63 61 67
48 52 54 56 60 58 55 53 57 72 84 95 96 97 97 97 96 96 96 95 97 95 98 98 97 94 90 86 86 85 84 84 83 81 76 78 86 75
54 56 56 58 58 54 52 56 74 94 98 98 98 97 98 98 98 98 98 98 98 98 97 97 97 97 96 89 86 84 85 84 85 85 85 82 89 84
60 59 60 62 56 53 60 84 98 98 98 98 98 98 98 98 98 98 98 98 98 98 98 97 97 97 96 96 92 88 87 86 85 84 89 85 84 91
61 62 64 57 54 65 92 98 98 98 98 98 98 98 98 98 97 98 97 97 96 95 96 97 97 97 97 97 97 93 89 90 88 88 86 91 97 97
63 65 59 55 69 94 98 98 98 98 98 98 98 96 94 93 93 91 89 90 91 89 94 92 97 98 97 97 97 96 93 94 95 95 94 98 97 98
66 60 55 71 95 98 98 98 98 98 98 95 94 97 98 98 98 98 98 98 98 96 97 96 82 96 98 98 97 97 97 97 97 97 97 97 97 98
62 54 71 96 98 98 98 98 97 93 95 98 98 97 94 95 98 98 98 98 97 97 96 95 85 84 96 98 97 97 97 98 98 97 97 97 97 97
56 72 94 98 98 98 98 91 92 98 88 82 78 71 70 74 80 84 85 89 94 97 97 97 89 80 80 95 97 97 97 98 98 98 97 97 97 97

GFSNE_prec_cthk_024.txt.gz
RH
19 17 17 17 17 18 19 21 26 25 22 18 21 19 24 25 31 39 34 28 30 28 32 33 36 36 43 47 47 48 45 45 46 50 45 50 69 83
17 15 16 16 17 18 21 24 27 31 28 20 23 23 22 29 34 39 34 31 29 34 38 37 40 44 37 37 42 48 36 39 45 45 45 47 54 63
15 14 15 16 17 20 23 27 31 35 42 26 26 26 27 28 25 31 35 37 37 38 39 36 32 36 43 44 37 41 46 43 44 48 51 55 54 60
13 14 15 17 19 24 29 31 35 38 42 42 34 36 33 30 30 33 39 42 50 47 44 37 44 45 41 48 49 40 37 39 41 48 56 59 58 48
14 15 17 21 26 31 33 38 39 43 47 51 43 38 39 37 39 39 44 43 43 43 38 39 42 46 43 41 40 42 39 40 48 51 52 57 60 48
18 18 23 28 33 36 41 45 48 52 52 47 56 53 49 47 55 58 51 45 37 39 39 41 48 39 35 41 42 40 37 53 55 54 57 66 56 53
20 23 28 35 38 46 49 50 53 52 55 58 56 58 59 60 60 54 52 44 37 45 46 39 34 30 31 37 41 42 39 43 54 60 61 64 57 48
24 28 34 38 40 47 49 49 54 60 58 63 63 63 54 58 57 57 55 51 46 48 45 28 42 40 43 48 53 59 61 58 60 62 61 63 55 52
33 36 37 40 44 46 46 50 55 56 63 67 63 61 59 62 60 56 57 53 48 45 55 51 63 62 68 67 69 69 71 69 58 53 62 63 54 49
38 41 44 44 48 51 52 54 53 56 58 63 64 64 66 62 63 59 59 55 64 74 80 69 79 83 87 89 95 97 91 82 69 58 52 50 51 46
41 47 52 50 50 54 58 57 57 56 57 59 63 64 60 57 62 70 71 78 77 85 92 84 86 86 90 90 92 92 89 87 76 65 56 51 53 48
44 48 48 50 48 56 60 60 61 58 59 58 51 47 54 66 84 92 93 91 91 87 92 91 87 88 84 92 96 95 87 78 72 64 57 52 52 42
49 44 41 46 56 60 60 64 64 62 56 52 60 76 93 97 98 99 99 97 93 91 90 95 94 95 96 94 94 91 87 80 74 68 59 49 46 38
49 43 45 55 58 61 64 64 61 59 61 77 94 97 98 98 98 99 97 96 97 94 95 97 94 95 91 88 88 85 84 86 82 75 65 59 52 42
47 53 57 60 61 59 60 58 59 71 91 96 97 98 99 99 97 96 95 98 98 97 97 97 97 93 88 86 86 85 87 86 84 87 79 77 65 47
52 58 57 58 60 60 52 58 82 99 99 99 98 98 98 98 98 98 98 97 96 97 98 98 97 97 89 86 84 87 88 86 87 79 77 71 66 57
59 57 55 58 56 51 65 93 98 98 98 98 98 98 98 98 98 98 98 97 98 98 97 97 98 96 91 86 84 87 88 88 87 79 76 71 70 63
59 58 62 59 54 77 97 97 98 98 98 98 98 98 98 98 97 98 98 98 98 98 98 97 96 94 89 86 85 85 88 88 88 85 81 89 94 88
61 64 60 57 86 99 99 99 98 98 98 98 98 98 98 98 98 97 97 98 98 98 98 97 98 96 95 90 87 88 88 88 87 90 96 98 96 90
65 61 59 86 99 99 99 98 98 98 98 98 98 98 97 98 97 98 98 98 98 98 98 95 97 97 96 93 87 88 88 87 91 98 95 96 97 98
61 60 84 98 98 99 99 98 98 98 94 88 83 82 81 84 92 98 98 98 97 97 97 95 95 97 98 96 92 89 89 88 88 90 94 98 98 97
63 83 95 98 99 99 97 96 98 90 77 72 71 69 66 66 74 85 89 96 97 97 98 88 94 97 98 97 98 97 94 95 95 94 96 96 96 97
82 91 97 99 98 94 95 89 80 73 74 75 72 68 66 65 67 68 74 83 89 91 97 95 86 97 98 97 97 97 97 97 98 96 98 98 96 97

GFSNE_prec_cthk_027.txt.gz
RH
21 18 15 13 11 12 14 16 22 24 19 17 21 21 25 27 28 33 30 25 25 28 34 38 37 39 45 38 37 38 46 48 49 48 49 49 42 39
15 14 13 11 11 12 16 19 22 27 29 20 21 23 26 30 32 34 32 31 28 33 39 40 46 52 43 40 39 39 46 46 47 48 47 45 47 45
13 13 13 13 14 16 18 23 28 34 36 23 25 26 26 28 30 35 42 40 38 40 48 51 49 43 44 42 39 50 50 50 49 49 51 57 59 52
15 16 15 14 16 20 23 28 32 34 44 43 30 34 33 34 39 38 41 44 50 51 55 52 49 46 43 40 44 48 47 46 49 47 47 47 49 51
18 18 17 18 21 25 30 34 38 45 48 50 43 37 43 47 43 46 48 45 50 51 51 48 46 43 40 46 49 48 45 46 48 46 45 44 48 48
18 20 21 23 27 34 36 43 48 47 46 46 53 55 51 50 56 52 44 47 51 53 47 47 50 48 51 47 38 38 39 39 42 42 41 44 51 54
21 24 25 30 35 38 46 44 47 48 53 58 56 57 55 47 53 51 51 51 52 55 52 47 48 40 37 37 38 37 39 43 46 46 46 43 48 52
27 29 30 34 35 38 42 49 52 59 57 59 61 58 54 57 54 56 57 56 54 56 53 51 57 54 57 60 61 62 59 56 52 54 49 59 59 58
32 32 33 34 39 42 40 48 48 55 60 62 59 61 60 58 59 58 60 68 71 75 76 69 83 82 81 72 76 83 84 81 79 73 57 59 56 48
34 36 36 38 42 47 47 50 56 57 58 62 67 63 62 62 64 72 78 81 86 89 94 85 85 79 78 80 87 89 94 97 96 92 92 76 57 46
33 34 42 42 43 48 57 60 58 57 58 62 62 60 63 84 96 94 92 93 89 90 89 89 87 76 78 79 83 86 96 93 97 93 90 86 69 52
30 33 37 44 50 60 64 61 61 57 60 56 61 86 92 94 98 99 98 94 94 89 85 91 90 86 84 86 88 95 95 93 92 88 80 78 70 54
38 37 40 50 61 60 61 62 61 59 66 88 94 94 96 97 98 98 99 98 96 95 93 98 96 96 94 91 87 83 89 90 86 85 78 73 62 50
45 45 52 58 59 58 58 57 61 83 95 96 97 97 97 96 97 98 98 98 98 99 98 99 98 99 97 90 85 83 83 83 87 86 75 66 58 44
50 55 55 56 56 53 52 70 94 96 96 96 98 98 98 98 98 97 97 98 97 97 98 98 98 98 95 87 87 83 94 95 98 98 96 71 56 42
53 51 54 57 55 53 78 95 98 98 97 97 98 98 98 98 98 98 97 97 97 95 98 98 98 98 93 86 88 84 97 98 93 95 97 86 68 56
54 53 55 52 50 86 94 97 98 98 98 98 98 97 98 98 98 98 98 98 98 97 97 97 97 97 91 87 90 96 97 97 88 83 79 79 68 60
54 58 54 59 90 96 96 96 97 98 98 98 97 97 95 96 98 98 98 98 97 98 98 98 94 90 87 89 93 90 91 93 85 96 90 76 64 58
59 56 65 88 96 97 97 98 97 98 96 90 85 83 84 86 91 97 97 98 98 98 98 98 97 91 89 89 89 87 90 90 94 98 97 84 77 75
58 66 85 96 97 98 97 97 98 94 83 76 75 76 75 70 77 89 96 97 98 98 96 98 97 94 89 89 87 83 87 91 96 98 98 92 87 83
65 83 92 97 97 95 97 94 83 76 75 79 75 71 69 64 65 77 88 96 98 98 92 97 97 95 91 88 89 85 90 93 97 98 97 98 98 98
81 90 95 97 92 89 82 79 78 80 82 83 72 70 70 69 68 70 75 83 90 98 95 97 97 98 93 92 93 89 95 98 97 98 98 97 97 94
88 92 94 87 84 79 80 79 81 83 84 83 72 69 72 70 75 75 78 80 84 85 97 93 98 98 98 95 93 95 96 97 93 97 97 97 98 97

GFSNE_prec_cthk_030.txt.gz
RH
20 17 15 13 13 12 12 14 19 19 16 16 19 20 22 25 27 28 28 28 34 36 39 39 36 38 39 39 50 51 52 50 51 45 43 45 46 47
16 15 14 15 14 13 14 16 19 24 25 18 18 22 27 31 32 33 36 41 38 36 39 44 43 44 52 51 50 54 54 52 49 46 49 50 50 50
16 16 17 17 16 16 16 19 22 27 33 22 22 24 27 30 33 44 50 48 44 43 46 45 45 47 53 53 54 53 49 50 49 51 51 51 50 59
17 18 18 18 19 18 20 23 26 29 38 40 29 28 29 31 38 41 46 50 50 42 42 49 50 51 50 51 52 50 48 50 49 50 47 48 49 48
19 20 21 22 21 22 26 30 34 38 42 45 39 35 38 37 39 45 47 43 43 42 46 49 50 52 51 52 53 53 58 58 56 51 48 45 48 51
21 22 23 26 26 30 35 38 45 44 43 46 48 45 45 50 55 52 42 44 45 47 49 51 49 48 48 51 51 51 49 45 42 43 44 43 43 45
22 24 27 29 32 36 43 43 44 44 49 52 47 54 58 53 54 53 51 50 49 51 50 56 59 59 53 51 50 45 41 39 38 39 40 43 45 46
25 27 27 30 32 34 35 41 45 53 52 61 64 61 57 59 57 57 56 57 66 74 82 77 83 76 72 71 72 74 68 60 59 55 55 56 52 51
27 28 29 31 31 32 33 43 44 57 65 65 61 59 58 56 61 74 86 90 86 83 92 82 88 85 84 85 83 76 76 76 77 78 83 81 72 57
28 30 34 31 33 40 47 50 57 51 51 56 59 59 72 89 96 95 93 90 89 90 89 81 80 77 79 79 76 71 73 77 83 84 89 92 89 82
29 33 36 35 38 50 58 54 51 49 48 54 74 93 97 98 100 95 93 96 92 89 86 88 86 85 85 82 76 73 76 85 91 95 98 98 96 92
30 31 34 41 50 54 56 56 50 47 70 87 91 90 93 96 99 98 97 96 96 91 90 96 94 95 91 90 88 89 89 91 91 89 88 86 91 87
33 33 36 46 54 55 56 52 57 83 90 90 88 91 94 96 97 98 99 98 94 93 93 98 97 98 97 94 90 87 82 81 88 92 86 87 88 85
39 38 45 50 54 54 48 66 90 93 92 90 93 95 96 96 97 98 98 98 98 96 97 99 97 98 95 85 83 84 89 93 96 97 97 85 84 81
39 46 49 52 50 43 70 90 92 92 93 94 96 96 97 97 97 97 97 98 97 96 98 98 98 98 90 86 95 93 94 93 97 98 98 86 72 71
44 45 49 49 45 75 87 89 92 95 95 95 95 92 91 90 93 97 97 97 96 96 97 98 98 95 87 89 95 93 88 91 96 96 96 79 66 54
46 46 46 49 74 89 90 92 94 96 97 93 86 81 79 81 86 94 97 97 98 97 96 95 94 89 91 91 92 91 97 96 88 91 88 69 64 57
45 48 54 75 89 92 93 94 95 96 90 78 77 76 75 74 72 87 97 98 96 97 97 95 89 88 91 89 93 93 97 98 91 82 73 68 61 58
49 57 74 87 92 93 92 93 90 79 75 80 80 70 69 68 65 76 92 98 97 97 98 98 92 90 90 92 88 96 97 98 95 83 78 63 63 57
56 74 85 92 93 89 87 83 78 78 82 83 79 70 69 71 70 69 81 97 97 97 97 98 96 92 90 92 90 96 97 98 98 84 79 70 64 60
72 83 89 90 82 82 82 80 80 83 83 84 75 72 72 73 75 74 73 88 97 97 97 97 97 93 90 92 97 98 97 98 97 97 96 89 79 66
81 83 83 78 80 82 81 81 86 89 90 90 76 74 74 76 77 77 80 82 88 97 96 97 97 95 90 91 98 98 97 98 98 98 97 97 95 76
78 78 75 79 82 82 86 92 93 92 91 92 78 75 75 75 77 75 76 81 83 88 94 97 97 98 96 93 98 98 98 97 97 95 96 98 97 97

GFSNE_prec_cthk_033.txt.gz
RH
26 24 20 18 17 16 16 17 20 21 17 17 19 19 21 23 25 27 27 28 32 34 37 40 40 42 43 43 42 43 42 43 49 51 51 53 52 51
24 20 17 17 18 18 18 19 20 23 25 17 18 21 25 27 28 31 34 37 36 40 44 45 47 45 43 43 41 42 45 53 54 54 57 60 56 51
19 18 18 19 20 20 21 22 24 28 31 20 18 18 18 22 27 33 38 44 43 43 48 48 46 45 47 48 51 51 47 54 54 57 63 61 55 53
18 19 20 21 22 23 24 25 26 27 35 35 26 20 22 23 27 38 46 52 56 53 45 43 47 48 50 51 56 54 56 52 51 54 54 53 54 53
21 21 22 23 24 25 26 27 30 33 36 36 31 32 33 38 41 47 50 51 51 48 49 52 51 54 54 55 53 53 53 55 59 58 58 59 60 60
22 23 23 25 25 27 30 33 34 33 33 37 40 42 50 52 55 54 48 46 45 46 50 52 56 57 56 57 58 59 59 54 50 49 53 56 54 52
23 23 23 23 25 30 33 31 34 40 42 45 49 56 55 52 49 47 56 66 78 87 86 82 82 80 77 74 69 67 66 65 63 60 55 45 40 47
22 22 22 22 25 29 31 34 43 47 54 57 54 53 47 51 67 84 89 89 81 88 90 80 88 82 80 80 79 79 79 76 74 69 67 65 60 51
23 23 23 27 28 28 31 39 46 52 57 57 49 51 68 86 90 89 90 92 90 91 91 82 85 79 79 78 80 80 79 80 79 75 76 76 71 68
24 26 30 28 31 36 43 47 44 45 45 47 66 84 91 93 94 93 90 91 91 92 92 85 88 88 89 88 84 81 82 78 78 75 75 77 77 81
26 31 32 35 36 45 48 49 46 41 50 81 90 92 91 94 96 91 90 92 87 89 92 92 89 90 91 88 86 88 87 89 86 82 82 84 88 90
30 30 34 37 40 48 53 49 45 61 83 86 86 87 90 92 96 97 96 93 91 84 92 92 92 94 89 89 87 83 84 80 80 83 86 89 91 90
29 31 33 38 43 48 49 48 74 85 86 86 86 87 91 93 94 96 98 97 92 89 93 97 95 97 97 86 79 84 85 90 91 91 90 93 95 97
33 34 37 42 46 45 48 78 87 88 87 88 88 89 84 81 82 87 91 98 98 95 95 98 95 96 89 85 85 89 92 93 93 97 97 98 98 98
37 40 41 42 42 49 77 87 87 87 89 90 89 80 77 76 76 79 84 95 96 95 97 95 94 88 86 91 94 92 94 94 96 97 98 98 89 83
40 39 39 43 52 75 84 86 88 90 92 87 76 75 72 67 69 70 82 92 93 92 96 91 88 88 89 93 95 97 97 97 97 98 90 75 90 72
41 38 41 52 74 85 87 86 89 90 82 74 77 76 65 63 64 63 78 94 95 95 94 88 88 91 92 95 97 97 97 90 83 82 87 78 70 50
39 42 54 73 85 87 85 87 85 79 75 80 80 75 66 65 65 65 68 95 96 96 96 90 89 87 89 94 97 94 94 88 83 77 76 63 61 44
42 55 72 84 89 82 82 82 77 75 80 82 81 71 69 70 68 70 68 87 96 97 98 91 90 89 91 96 97 97 88 86 83 78 80 69 67 61
54 72 82 86 78 80 80 79 77 80 85 86 84 73 73 72 72 74 76 78 95 97 98 95 90 88 90 96 97 98 96 87 81 75 77 69 68 67
71 79 79 77 79 83 84 84 87 91 89 89 85 76 76 73 72 72 76 80 93 98 97 95 92 91 94 94 97 98 98 96 97 74 74 70 66 58
72 74 77 81 85 85 86 88 90 88 89 91 88 79 76 77 78 77 78 78 81 97 97 98 93 93 97 95 97 98 98 98 97 93 79 71 64 62
73 73 78 81 82 83 83 83 84 84 87 96 88 79 80 82 84 85 85 83 82 88 94 97 97 94 97 95 98 97 97 97 97 98 86 72 72 73

GFSNE_prec_cthk_036.txt.gz
RH
29 28 28 27 24 22 21 22 23 22 18 19 19 18 17 20 20 23 23 22 29 31 31 31 32 38 39 40 44 45 45 45 45 44 44 45 49 50
28 28 26 23 22 22 23 24 26 26 25 18 16 17 18 20 20 25 26 31 31 33 39 45 46 44 50 52 47 42 44 46 45 45 46 47 55 54
29 26 22 22 22 23 25 26 26 27 26 15 16 14 15 20 22 29 37 40 40 41 46 51 51 52 52 52 53 53 54 54 53 54 54 54 54 62
26 23 22 22 22 24 24 24 24 24 31 27 17 18 21 23 29 37 39 41 40 36 43 45 50 51 51 52 53 53 55 52 57 57 56 55 55 55
24 23 21 22 22 21 22 24 26 29 31 32 29 29 30 39 39 39 39 37 51 67 73 74 79 80 81 79 74 64 57 56 53 54 56 58 59 58
22 21 20 19 19 22 25 29 31 30 29 35 40 44 46 43 41 41 56 70 73 79 77 78 84 84 84 84 83 81 79 71 66 63 61 59 57 57
21 21 21 20 22 26 30 31 33 34 39 44 48 47 43 41 57 70 75 76 79 85 80 81 83 82 81 79 77 77 76 78 79 75 73 71 68 61
22 21 20 20 22 24 27 34 39 45 47 48 45 42 52 73 75 80 81 81 75 87 86 79 85 81 84 85 87 88 86 81 75 76 81 81 80 72
21 21 21 23 23 25 28 34 44 48 49 46 45 66 77 80 82 82 81 83 85 86 88 76 84 83 86 86 88 90 91 90 88 83 79 75 79 73
22 22 24 23 28 34 37 43 40 40 38 52 78 81 85 86 88 87 84 83 83 86 89 82 87 85 87 87 87 87 88 87 92 86 81 78 76 72
22 25 29 32 34 39 45 41 41 37 61 79 83 87 86 87 90 85 81 83 79 82 87 89 86 87 90 86 85 86 82 80 80 81 83 83 82 79
25 27 30 35 38 41 42 44 43 67 78 80 81 83 85 84 83 82 81 81 82 81 87 87 85 85 85 83 79 83 90 88 90 92 91 89 88 85
30 30 32 37 40 41 46 45 73 81 81 80 80 82 79 73 72 75 80 80 83 86 90 87 83 85 86 80 84 91 93 95 94 93 94 94 96 98
33 33 35 39 37 41 44 75 83 83 81 81 82 75 68 68 62 62 66 71 93 91 91 89 85 83 86 90 91 89 95 96 97 94 97 96 94 97
34 37 37 36 38 42 74 83 83 81 83 82 71 69 72 67 60 61 62 63 92 92 94 88 87 90 92 93 91 94 93 90 87 92 97 98 94 94
35 34 33 37 44 73 83 83 80 83 78 70 70 73 72 62 63 65 62 61 87 90 92 87 88 93 93 99 96 97 90 87 82 81 83 77 74 76
37 32 35 46 71 85 83 78 81 78 75 73 76 76 71 65 69 68 69 66 87 93 90 84 89 93 94 96 96 98 87 85 79 77 71 64 60 50
33 35 49 70 82 78 73 79 78 77 75 79 83 84 74 70 70 70 72 71 85 95 94 87 86 88 89 92 95 87 87 86 85 83 74 54 46 41
34 48 69 76 76 74 80 80 78 81 86 88 87 87 74 75 73 69 68 73 81 96 97 92 87 91 91 93 96 89 89 87 85 88 70 64 64 55
45 64 72 75 75 81 81 82 83 84 84 82 85 87 78 73 72 72 71 72 79 96 96 94 87 90 93 91 93 91 92 83 83 89 74 60 58 57
59 69 71 74 80 81 83 82 82 81 81 81 89 85 77 78 79 80 81 79 80 94 96 94 89 93 97 94 94 96 92 85 85 84 79 64 65 64
64 66 72 79 80 80 81 83 83 83 83 91 90 81 82 84 85 85 83 80 80 91 96 96 89 91 93 95 96 97 93 90 86 76 78 70 60 58
63 69 76 76 76 79 83 84 88 92 94 90 84 84 83 84 87 84 84 81 77 87 92 94 91 87 89 94 96 96 98 92 83 76 74 73 70 67

GFSNE_prec_cthk_039.txt.gz
RH
34 32 28 27 27 26 26 26 27 23 19 18 18 18 19 20 20 22 24 24 25 27 31 32 35 40 38 39 42 43 44 51 51 50 51 52 54 54
31 28 28 27 26 26 24 23 22 23 20 16 15 19 21 23 23 26 27 28 27 29 34 37 40 43 44 45 46 46 46 47 53 54 51 49 51 53
29 29 28 27 26 23 22 20 19 20 21 14 18 17 21 25 28 33 37 37 34 33 37 45 54 59 63 66 67 67 64 57 54 60 59 59 59 61
29 29 28 25 23 20 18 17 19 22 24 21 18 20 24 27 33 35 35 32 38 51 61 65 67 68 69 71 74 73 73 73 75 70 62 58 60 65
30 28 26 23 21 19 19 22 23 26 29 31 25 24 29 35 35 31 35 55 63 64 68 68 71 76 78 77 76 77 77 77 77 77 79 73 58 59
28 26 24 22 21 21 25 29 31 31 31 34 35 39 39 34 33 52 60 66 68 71 68 72 75 77 77 74 73 74 77 78 76 77 78 80 77 64
26 24 23 21 21 26 30 32 32 32 33 38 45 42 36 42 63 67 69 70 72 74 68 72 74 74 73 75 79 80 79 80 84 86 85 81 81 80
24 22 21 22 22 24 25 33 35 38 41 46 43 40 54 68 71 74 75 75 67 73 72 69 75 74 77 76 77 82 84 87 88 88 87 86 83 82
22 22 23 23 22 23 25 33 35 41 44 43 45 63 71 75 78 77 76 74 70 68 72 68 76 76 76 75 79 81 81 83 86 87 90 89 87 83
22 22 23 22 25 30 32 33 36 36 40 48 74 76 80 82 82 79 74 67 65 66 72 72 77 74 75 73 73 73 74 79 81 80 78 80 87 86
22 22 23 26 29 33 37 36 38 38 48 76 79 81 81 82 81 76 71 66 54 56 67 80 80 70 72 68 74 80 90 92 92 92 90 92 93 84
24 24 25 27 33 36 39 41 41 52 77 80 79 79 81 78 75 77 72 61 59 50 73 83 79 71 66 75 81 85 90 95 97 95 94 95 97 93
24 23 26 28 36 38 42 42 58 80 80 78 81 81 73 72 70 69 66 68 62 59 79 88 78 77 83 77 82 88 92 88 86 85 88 89 95 95
26 26 27 35 34 37 40 62 81 81 78 81 78 67 65 69 68 64 65 68 70 67 82 94 82 84 85 86 87 84 92 91 81 80 81 82 87 84
27 29 30 32 31 37 66 80 79 74 75 72 69 67 71 70 64 63 65 66 68 69 86 96 88 87 88 91 88 87 86 86 90 82 76 69 70 75
29 29 28 30 40 67 79 73 73 76 75 74 71 75 78 78 72 71 66 64 63 66 88 95 88 89 90 94 94 92 93 89 82 78 77 70 60 55
32 28 28 40 66 75 72 75 79 79 79 79 82 82 82 80 71 71 69 64 65 66 89 93 88 90 91 89 93 95 88 92 85 75 68 64 47 47
29 28 41 61 69 69 75 78 80 80 81 82 81 79 82 76 71 71 72 70 66 69 92 94 88 82 85 84 94 90 86 93 83 71 63 61 55 47
28 40 57 64 68 75 76 77 78 80 81 82 80 83 86 78 76 77 78 78 75 73 94 96 92 87 89 89 90 89 87 90 86 74 75 66 61 53
39 54 62 67 73 73 75 77 79 81 83 82 89 90 84 83 83 85 84 81 77 78 93 95 93 88 94 93 91 92 87 86 87 82 71 68 64 65
51 59 64 69 70 72 77 83 86 90 92 93 89 86 86 85 87 87 84 83 78 79 93 94 90 89 93 93 95 95 87 82 77 75 71 69 66 65
56 59 66 68 69 73 79 83 86 88 88 86 85 85 87 88 88 83 81 81 78 78 93 93 87 87 90 93 95 94 89 81 76 77 73 69 64 65
56 62 67 68 71 76 81 82 82 83 83 82 84 87 88 89 88 85 81 77 78 76 90 92 89 88 90 91 94 96 91 87 79 75 75 71 66 63

GFSNE_prec_cthk_042.txt.gz
RH
39 36 34 33 28 28 29 30 28 26 25 24 22 22 22 23 24 25 27 27 27 27 30 31 32 33 36 37 37 41 41 42 42 49 46 42 50 48
38 37 33 28 28 30 31 30 29 26 23 21 20 24 26 27 27 27 28 28 28 31 32 34 37 40 44 50 54 57 59 60 60 57 53 52 53 53
39 33 28 29 30 30 30 28 26 23 21 19 22 26 28 29 28 34 35 31 29 32 36 45 55 57 59 62 63 65 66 66 67 67 67 65 70 66
32 29 31 31 28 29 29 26 24 25 29 25 23 26 27 29 32 35 38 32 38 51 57 59 64 62 65 66 67 68 69 69 67 70 72 72 72 69
31 31 30 29 30 29 26 26 30 31 31 31 27 27 29 33 34 34 36 49 60 63 67 64 64 63 65 69 69 69 67 67 69 70 72 74 76 74
32 30 30 30 29 27 27 32 32 31 30 31 31 30 36 35 34 40 52 64 67 69 67 64 61 61 64 63 66 68 68 68 70 72 75 77 78 80
32 32 32 28 24 27 29 33 32 31 32 33 41 42 36 34 46 60 65 68 72 73 63 61 62 60 61 68 70 69 68 70 72 75 79 79 80 80
34 32 30 29 27 26 32 33 33 35 35 44 43 40 38 54 68 71 71 71 66 66 69 50 59 58 68 69 72 67 66 69 70 72 74 79 84 89
32 31 29 26 27 31 32 32 34 36 40 40 41 43 60 74 75 74 75 70 66 61 64 45 53 62 72 74 68 65 67 72 77 80 82 83 81 77
32 29 26 28 31 32 32 33 36 36 40 41 52 68 77 78 81 78 72 64 59 51 63 50 49 63 76 77 64 68 76 82 84 87 89 89 90 88
27 26 29 31 32 32 33 33 35 38 43 60 76 79 82 83 83 75 64 65 53 50 53 52 56 66 79 68 71 78 84 87 85 86 84 82 82 90
27 29 30 31 32 34 36 36 38 44 67 79 80 81 82 79 73 69 70 66 59 51 57 54 60 76 71 71 76 80 84 87 85 83 82 76 77 80
29 29 30 32 33 34 36 38 47 74 79 75 76 75 73 70 68 74 76 72 67 65 64 62 64 84 82 70 73 80 83 83 83 86 84 85 83 78
30 30 31 33 30 29 33 49 76 75 70 73 73 73 71 70 75 78 77 74 76 72 66 70 69 89 81 77 78 77 87 89 89 80 78 81 82 72
30 30 33 27 26 29 54 73 67 69 73 74 73 74 75 78 78 76 73 71 72 71 70 70 78 93 85 84 82 80 83 88 87 79 74 74 69 60
32 29 27 27 36 60 68 67 72 76 76 75 76 78 80 80 76 75 70 69 66 66 71 73 83 95 85 90 88 84 88 90 80 81 76 74 65 59
31 27 28 42 62 66 67 72 73 74 76 78 78 78 78 79 81 76 74 73 74 71 69 72 89 95 88 88 85 90 88 95 82 87 86 76 71 58
28 30 45 58 63 65 67 68 73 78 80 80 81 82 85 86 80 81 81 81 80 76 72 73 92 90 81 84 88 93 89 94 84 79 74 74 68 60
29 45 54 59 62 66 68 74 78 84 87 90 90 89 85 84 84 83 84 82 80 77 74 82 96 93 86 88 86 92 86 87 83 76 75 79 74 61
42 52 56 61 65 67 72 77 82 84 85 86 85 85 86 85 84 84 84 78 79 77 75 91 96 91 90 91 90 88 85 81 79 76 73 76 76 78
49 52 58 63 65 69 75 81 84 84 84 84 85 87 88 87 87 86 84 80 77 77 78 94 94 87 90 89 91 89 83 83 82 77 74 72 71 80
48 54 61 63 67 73 77 80 83 87 88 90 94 95 94 93 91 88 84 81 74 76 85 93 90 86 88 89 90 91 84 79 81 79 76 70 67 76
52 59 62 67 71 75 78 81 85 89 91 94 97 99 98 95 94 91 85 79 75 73 83 90 89 86 87 88 93 95 88 84 81 78 77 71 69 80

GFSNE_prec_cthk_045.txt.gz
RH
53 50 45 42 37 35 32 31 31 28 29 27 25 24 22 22 23 23 22 22 26 28 29 29 29 30 31 32 34 36 38 42 42 44 47 46 43 48
55 49 45 39 36 31 30 30 32 32 29 27 25 25 26 26 24 27 26 27 27 28 29 31 34 37 41 47 53 54 54 55 57 61 63 62 61 63
53 49 43 37 31 30 31 33 31 29 27 25 27 28 26 26 28 27 29 27 25 28 31 39 44 50 56 58 60 60 60 60 62 64 67 68 69 69
51 45 37 33 31 33 33 31 29 28 30 28 28 26 28 28 30 34 32 31 27 34 44 51 58 60 62 62 61 60 61 62 63 65 65 65 65 67
47 38 32 33 35 34 31 30 29 30 30 29 25 27 28 33 36 35 30 31 42 50 57 60 61 60 62 62 61 59 59 62 65 66 67 66 66 66
37 34 35 36 34 32 30 30 28 29 30 29 28 28 34 37 37 34 36 46 58 65 64 61 59 59 57 54 53 54 59 66 69 66 62 62 63 64
34 36 36 34 31 32 30 29 32 31 30 30 33 38 36 33 35 42 52 64 67 72 64 58 60 51 48 47 52 57 65 72 70 62 62 62 63 63
37 34 33 32 30 28 30 32 31 33 34 38 37 41 36 37 49 60 67 70 68 71 68 55 53 45 45 45 53 58 71 72 60 62 69 73 76 78
34 34 32 29 27 28 30 30 31 32 37 41 42 41 43 59 66 68 74 75 69 62 63 48 46 41 42 46 55 63 74 64 67 71 75 76 73 75
34 32 28 26 26 29 29 30 30 33 34 37 42 52 68 72 76 77 75 63 52 57 62 55 49 44 43 53 58 66 72 71 77 77 77 79 79 77
29 26 24 27 28 30 35 32 31 30 31 42 64 73 75 76 76 72 66 62 55 58 60 62 57 53 45 55 63 71 70 76 78 80 80 82 83 82
24 22 24 28 30 34 38 34 31 31 44 68 71 69 71 72 74 74 70 67 67 62 65 63 61 64 47 63 70 75 70 75 81 85 88 89 82 76
22 23 25 30 31 32 33 32 36 60 67 63 67 70 71 72 73 74 77 79 74 66 65 68 61 63 66 65 76 76 72 77 82 88 90 83 83 81
25 25 26 32 32 31 31 47 64 64 62 67 68 69 70 73 77 80 81 80 79 69 66 72 66 66 64 74 76 73 77 80 84 86 82 80 83 86
25 29 30 26 25 32 51 61 60 62 63 65 68 70 73 74 76 75 77 78 74 73 72 72 72 69 72 89 79 78 78 82 84 89 85 86 83 76
25 24 25 25 36 50 55 58 61 64 70 72 74 75 77 79 80 82 80 78 77 77 80 78 76 73 79 91 84 81 83 83 87 92 84 75 73 76
28 23 23 37 47 52 56 60 64 70 75 78 81 83 84 84 83 83 84 83 82 76 72 74 76 75 91 88 84 80 82 85 89 89 86 74 76 76
24 24 38 45 50 55 58 61 67 73 78 81 81 81 82 82 84 85 84 83 80 75 73 72 71 79 88 82 84 84 84 86 86 83 80 75 71 80
25 37 45 49 54 58 60 65 70 74 79 82 84 86 86 87 86 84 84 84 81 76 74 72 80 94 90 80 79 84 85 87 80 78 79 76 77 83
35 45 49 54 58 62 67 71 75 79 84 87 89 92 95 94 91 91 90 86 80 73 72 75 93 95 87 88 88 81 86 82 78 77 77 76 80 88
46 47 53 58 63 67 71 75 80 84 88 92 96 97 98 97 95 94 90 88 81 73 70 83 93 91 92 89 88 87 84 83 82 80 79 77 75 89
47 52 58 62 65 69 74 80 87 92 94 97 98 98 98 97 95 92 88 85 79 72 72 86 89 90 90 91 92 93 85 84 81 81 81 77 75 83
53 59 61 63 66 70 77 84 92 95 97 98 98 98 98 97 96 92 87 83 78 71 74 84 88 90 90 94 97 95 88 80 79 79 80 73 84 97

GFSNE_prec_cthk_051.txt.gz
RH
70 68 67 63 59 55 53 53 44 40 36 33 30 28 28 26 25 25 24 21 23 22 20 25 28 28 29 33 38 39 38 41 43 44 45 45 47 47
71 69 67 63 60 58 56 47 41 37 34 29 29 28 27 25 23 21 20 19 18 19 22 27 29 29 30 39 37 41 43 44 46 48 52 53 55 59
70 71 68 63 63 58 48 42 37 33 31 30 29 28 25 22 21 19 18 17 16 16 21 23 30 34 35 39 42 45 48 52 54 55 59 63 64 64
73 71 66 65 59 49 42 36 32 33 32 31 28 25 23 20 19 19 19 18 19 19 26 34 34 40 43 48 52 58 59 59 58 57 59 60 60 59
74 68 67 58 48 40 35 34 34 34 31 28 26 24 22 18 18 19 21 20 22 29 34 38 45 50 54 58 59 60 59 57 58 56 55 53 53 54
70 66 55 45 38 35 35 36 35 31 28 28 28 26 25 23 23 24 22 27 31 40 46 53 58 58 58 56 56 53 52 54 52 53 53 52 51 53
64 49 40 35 35 34 36 33 30 27 27 31 30 29 28 27 26 29 38 41 45 52 54 57 57 53 52 51 51 49 48 51 50 49 48 49 53 57
44 35 33 33 33 32 30 27 26 30 31 31 30 31 29 29 40 47 47 47 44 52 50 50 51 46 45 45 46 47 48 49 47 48 48 51 55 61
34 33 31 31 29 26 23 24 26 28 31 31 30 31 38 46 48 48 51 52 49 48 49 48 52 49 51 51 51 48 47 51 52 53 54 59 64 66
32 31 28 24 21 22 24 29 29 28 28 28 35 43 47 50 54 55 55 54 52 53 59 54 55 53 56 58 55 52 52 53 57 57 57 60 66 69
29 25 22 20 21 25 30 30 30 28 27 37 45 48 50 53 55 56 58 59 55 57 64 61 59 56 55 55 57 56 55 55 57 56 58 64 70 69
21 19 19 21 22 28 31 31 30 26 37 42 45 47 51 56 60 64 66 66 66 62 71 67 67 70 57 60 64 62 60 58 59 61 62 66 71 71
21 17 16 19 25 31 31 28 27 43 44 43 45 51 56 60 65 69 72 73 72 73 78 77 72 73 73 59 63 65 62 60 60 62 64 72 73 75
17 18 21 25 26 23 23 27 42 45 43 46 51 56 61 66 72 75 78 80 85 82 79 82 72 73 71 63 57 60 62 62 62 62 72 71 72 76
19 22 23 23 19 17 24 41 44 45 49 54 58 63 70 75 79 80 84 85 88 92 89 85 82 78 77 70 62 60 59 65 68 74 72 71 75 79
22 22 21 19 18 26 43 47 48 53 57 61 67 74 83 87 90 90 86 86 85 86 91 90 86 82 74 70 69 69 74 74 76 74 72 74 77 77
23 19 17 17 28 45 48 50 55 59 64 72 80 88 92 92 92 93 90 86 84 82 82 84 82 78 72 76 86 82 81 77 75 77 79 77 79 78
19 18 18 29 47 49 51 55 59 65 74 85 94 96 94 93 91 92 92 88 82 81 80 76 72 66 76 88 90 83 78 79 80 82 82 75 71 77
19 19 29 49 50 53 55 59 66 77 84 92 93 93 95 94 94 92 90 85 80 79 78 74 71 81 85 84 81 86 84 83 83 81 77 77 75 73
20 28 51 52 53 55 60 69 77 83 90 89 91 96 97 96 94 92 88 82 78 76 74 73 81 87 89 88 87 85 87 84 81 77 76 78 77 74
26 52 54 54 56 62 71 76 81 85 85 90 94 93 93 95 93 87 82 79 77 74 74 77 83 94 95 95 92 89 87 84 82 79 76 75 74 74
53 55 56 57 64 71 75 79 82 82 88 93 88 86 85 86 82 78 75 72 71 77 79 83 93 95 97 96 93 90 90 86 82 80 79 81 81 82
57 57 59 65 70 73 78 80 80 84 91 94 90 86 82 79 77 75 73 75 81 83 92 94 96 97 97 96 94 91 86 84 81 85 90 96 97 98

GFSNE_prec_cthk_054.txt.gz
RH
72 76 72 69 66 63 62 61 58 52 51 50 44 38 33 29 27 26 24 23 20 19 20 20 19 24 28 28 28 37 36 38 38 36 40 40 42 42
76 76 74 74 65 65 66 63 57 55 49 42 36 32 29 29 27 25 22 20 18 15 15 19 20 24 28 29 30 36 39 37 40 38 42 45 47 49
78 85 84 72 69 68 67 60 57 49 42 36 32 30 29 26 22 20 17 15 13 12 13 20 22 29 31 32 34 37 39 41 43 45 46 51 58 60
80 75 75 69 71 69 62 57 47 40 36 32 32 31 28 25 22 19 16 13 13 13 16 24 27 31 34 40 43 47 49 51 52 53 56 55 56 58
88 81 75 74 69 62 53 43 38 34 34 34 31 28 26 21 19 16 16 15 17 23 30 34 37 41 46 49 53 53 52 53 55 53 56 57 58 57
80 76 76 68 57 47 41 36 35 36 33 29 28 26 24 21 19 20 19 25 30 34 36 38 41 43 45 46 45 44 44 46 49 51 56 56 55 54
76 69 60 49 42 37 34 36 35 30 27 28 30 27 24 22 20 24 31 31 32 36 36 38 39 39 43 45 45 44 43 46 45 43 46 48 50 49
64 50 43 37 32 32 32 29 29 28 29 30 31 29 24 22 29 35 36 37 35 40 40 37 41 38 42 44 45 47 50 51 49 45 44 45 45 46
44 39 33 31 31 28 24 24 25 25 30 32 31 27 25 33 39 40 42 43 43 43 45 41 45 43 46 46 50 53 53 55 52 50 48 48 50 52
34 32 32 29 24 22 24 26 27 27 28 26 23 26 40 43 46 47 47 47 47 51 57 48 50 48 51 54 57 57 58 56 56 55 53 52 51 51
32 30 25 22 20 25 26 29 29 24 23 22 30 43 45 47 48 51 52 55 52 56 67 59 56 53 54 59 68 71 65 60 57 55 54 56 55 56
25 22 20 19 23 23 31 29 25 22 23 36 43 45 46 50 55 60 63 65 68 62 75 68 64 67 53 55 63 71 70 69 62 59 57 56 58 59
21 18 17 19 23 23 23 23 22 29 40 43 43 46 53 58 64 71 77 82 82 81 84 83 69 72 74 60 57 64 65 62 61 60 60 59 58 60
18 18 21 22 22 19 17 17 30 42 44 46 49 55 59 66 75 84 93 95 95 90 85 87 76 77 77 71 64 61 61 60 61 60 60 60 61 67
20 22 20 18 16 16 18 31 42 46 48 51 56 63 71 81 91 93 93 95 91 92 90 86 82 80 82 76 67 60 57 60 69 65 63 66 76 76
19 17 17 17 17 20 37 46 49 50 53 59 68 79 84 86 88 92 89 89 85 84 90 86 81 82 80 77 69 70 81 79 74 72 75 76 74 73
18 16 16 16 22 40 48 50 53 57 65 75 79 79 80 83 87 90 90 88 86 79 76 78 80 80 78 78 81 86 86 82 80 79 78 75 75 75
17 17 17 24 43 49 50 53 60 69 74 75 77 80 78 76 79 84 86 84 79 77 74 73 72 70 74 83 90 87 82 80 82 84 84 80 80 82
18 18 24 45 51 51 55 65 71 73 73 77 81 77 72 71 75 76 77 75 73 73 71 74 78 81 86 88 87 89 85 85 88 87 85 80 75 78
20 25 47 52 53 58 66 71 73 73 77 84 83 78 74 72 71 72 71 70 69 69 75 82 88 97 97 95 92 88 92 88 86 84 81 80 75 71
23 47 53 55 62 66 70 72 73 75 81 87 90 86 80 77 73 74 75 78 81 86 91 95 97 98 98 98 95 93 92 91 86 81 78 76 74 73
46 54 57 63 66 69 72 73 73 77 82 87 90 91 91 90 87 86 88 91 96 98 97 96 95 97 98 98 96 95 93 93 92 91 90 89 90 89
54 57 62 66 66 69 73 73 72 74 78 85 88 87 89 90 92 93 95 97 98 97 98 95 95 97 98 98 97 97 97 96 95 91 92 95 98 98

GFSNE_prec_cthk_057.txt.gz
RH
75 74 71 69 72 74 73 69 70 66 62 66 64 59 52 45 39 33 29 26 25 22 20 20 23 23 21 24 28 28 28 28 28 29 29 32 38 39
76 73 77 74 71 74 81 82 76 67 60 59 58 52 43 36 32 29 27 25 22 19 17 17 21 21 24 28 28 29 29 29 30 32 33 35 42 42
71 81 90 88 79 81 73 75 74 65 60 56 46 40 35 31 27 26 23 20 17 14 12 14 20 21 26 28 30 34 35 36 37 39 42 45 47 47
90 84 80 83 87 88 82 77 68 63 52 43 39 35 32 29 27 24 21 17 14 12 14 20 27 29 30 31 33 37 39 40 42 44 46 49 50 52
87 85 93 91 87 83 77 68 58 47 41 37 35 33 32 28 24 21 18 15 14 18 22 24 25 26 28 32 34 37 38 38 40 43 44 43 49 52
92 91 92 91 82 69 58 48 43 38 36 35 33 32 29 24 22 21 19 16 21 25 26 26 26 28 29 30 31 31 32 33 38 40 41 42 45 49
90 83 82 73 59 47 43 38 36 37 33 32 30 27 24 23 23 21 20 26 28 29 27 28 30 31 33 35 36 36 36 37 42 42 43 44 47 47
75 75 58 48 44 40 34 31 30 32 30 29 28 26 25 25 23 23 32 34 32 33 33 33 37 36 40 42 45 45 45 47 47 46 48 48 49 51
62 51 46 41 34 30 27 25 25 25 26 27 28 27 25 23 29 35 39 37 38 40 42 36 42 41 47 51 55 55 54 54 55 54 53 52 53 56
45 39 35 30 27 24 23 26 24 24 25 24 23 21 26 35 42 43 41 41 42 46 55 42 48 48 54 57 61 63 65 63 61 61 61 63 58 56
36 31 27 24 22 21 25 26 25 23 22 20 22 31 39 42 44 44 46 49 48 52 63 64 61 63 62 57 62 71 76 73 67 62 62 61 63 64
27 24 22 20 20 25 27 25 22 19 20 25 34 39 42 46 51 55 59 62 70 68 84 83 78 79 63 57 60 71 76 80 74 66 62 60 59 59
21 19 18 19 25 24 24 21 18 23 30 36 39 45 48 53 62 72 80 84 84 85 92 95 81 82 79 64 59 66 75 75 70 65 64 61 58 58
17 17 19 22 21 17 15 16 23 33 38 43 45 49 58 67 70 72 77 82 85 88 90 96 84 85 79 70 63 67 72 68 64 62 64 63 62 61
20 22 20 16 14 14 16 26 36 42 45 48 57 64 64 66 67 62 64 72 78 88 90 89 84 80 78 74 69 67 61 62 80 78 75 70 69 69
18 16 15 14 15 18 31 41 46 47 54 62 63 64 70 65 59 60 60 64 65 68 79 80 79 79 76 78 78 74 81 86 84 84 82 83 82 80
14 13 14 15 20 35 45 47 50 59 64 63 66 73 69 63 61 63 64 65 66 65 65 73 80 83 83 84 85 87 88 88 87 85 85 83 81 80
14 15 16 21 39 47 49 55 61 64 64 66 73 77 75 70 66 66 69 70 70 70 73 77 80 83 89 89 89 87 87 86 85 87 88 86 85 82
16 17 22 43 49 53 60 63 63 64 66 71 77 81 82 81 80 78 78 80 81 84 89 94 96 97 94 92 91 93 85 86 90 87 87 85 82 83
17 22 44 50 56 60 63 65 65 65 69 74 80 83 84 85 85 86 90 93 94 94 95 97 98 97 95 93 91 90 95 89 89 87 87 88 82 76
25 42 50 55 58 61 64 66 68 68 69 73 80 83 83 85 86 89 94 97 98 98 97 97 98 98 98 98 95 94 95 97 95 91 88 86 82 78
40 49 53 56 59 60 62 66 70 70 72 74 76 80 82 84 85 89 95 96 97 98 97 97 97 97 98 98 97 97 96 94 96 96 96 95 91 85
47 51 54 57 59 60 61 62 68 73 72 71 75 77 79 82 85 90 93 96 97 98 98 96 97 97 98 98 98 98 97 95 93 94 94 97 98 99

GFSNE_prec_cthk_060.txt.gz
RH
94 91 89 87 83 83 79 77 77 76 76 81 78 73 67 65 59 51 45 38 33 29 27 25 25 29 28 26 25 26 28 30 30 30 28 30 33 34
92 91 89 89 86 79 85 86 92 83 71 77 77 75 69 61 52 45 39 33 29 28 25 23 26 26 25 25 28 30 32 32 32 32 33 33 34 35
89 92 89 89 83 86 82 92 82 89 85 78 74 66 56 47 41 35 30 29 26 23 19 17 23 24 24 27 28 32 34 33 33 33 34 35 36 37
92 89 94 90 89 94 96 85 85 84 79 69 57 48 43 38 32 30 28 26 22 18 16 16 22 21 25 28 28 29 32 33 34 34 34 35 34 37
93 96 91 96 90 96 96 87 75 70 60 50 44 40 35 32 31 27 25 22 17 14 16 20 22 24 25 29 30 32 30 30 30 31 33 32 31 32
97 91 87 96 94 91 79 68 60 52 45 42 37 33 32 29 27 25 22 18 16 18 20 25 27 27 28 30 30 30 30 30 30 35 35 35 35 35
97 96 96 90 81 70 62 56 51 44 37 32 31 30 28 26 25 22 19 19 22 26 26 27 29 30 34 35 35 36 36 36 37 42 43 47 47 46
94 90 81 70 62 52 44 38 32 30 28 29 29 27 25 24 22 19 26 31 31 31 30 29 36 35 38 39 42 43 45 46 47 53 53 52 50 49
82 70 60 51 44 38 34 30 26 24 26 27 26 25 23 21 25 33 36 36 37 38 42 35 42 41 46 48 53 54 57 60 63 64 62 58 55 54
60 52 44 39 34 29 25 25 25 22 23 22 21 20 23 32 36 38 40 40 43 49 60 50 58 59 63 66 71 77 80 80 77 73 67 62 60 60
43 36 30 28 24 20 25 25 23 20 19 17 18 27 33 37 40 42 48 53 51 54 58 57 55 57 64 70 77 79 81 83 79 73 67 62 61 63
26 24 22 18 20 24 25 23 18 14 15 20 31 35 40 44 52 57 57 57 53 45 51 57 58 67 56 63 73 76 76 78 76 71 66 64 65 64
20 17 16 17 23 21 19 16 14 21 29 33 38 42 50 57 58 61 58 51 51 52 56 61 58 63 68 62 62 66 69 69 66 64 68 67 63 61
16 16 15 12 11 12 13 15 24 32 37 41 46 55 58 57 64 60 52 53 57 60 61 68 66 68 67 64 61 61 64 66 67 65 67 68 73 75
15 12 11 11 12 13 16 24 35 40 44 54 59 57 58 67 68 60 57 58 58 62 66 68 69 72 75 76 76 75 74 76 82 83 84 84 81 77
11 11 12 12 13 17 29 40 44 51 57 58 57 61 68 71 71 69 66 66 64 65 72 77 81 86 88 88 87 81 85 86 85 87 85 85 85 84
12 12 13 15 20 35 42 47 53 56 57 59 62 67 72 73 74 73 74 76 78 80 82 88 93 95 96 93 87 85 81 81 82 84 85 84 84 84
12 13 15 23 39 44 49 54 57 58 60 61 65 71 75 75 73 74 77 82 85 87 87 88 89 89 89 89 92 87 83 80 85 89 88 85 84 85
13 16 26 39 44 48 53 56 58 61 62 64 67 70 75 76 76 76 79 84 87 90 91 93 91 91 87 86 89 96 86 86 87 89 90 91 88 86
18 26 38 43 46 49 53 55 57 62 65 67 70 74 76 77 77 78 82 85 89 91 93 95 96 94 92 91 90 91 95 90 92 92 92 93 91 87
25 37 42 46 48 50 53 55 57 59 64 69 70 70 74 75 74 77 82 87 92 96 95 94 96 98 98 97 95 94 95 97 96 93 89 89 84 84
34 42 44 48 50 51 52 54 56 58 60 64 69 68 68 72 74 77 79 82 88 94 95 95 95 97 98 97 96 95 93 91 90 94 96 98 96 91
40 45 48 49 51 52 53 55 57 58 61 62 64 68 69 68 74 78 74 77 85 92 95 93 94 97 97 98 98 95 93 90 88 89 91 92 90 96

GFSNE_prec_cthk_063.txt.gz
RH
94 95 93 95 90 89 88 80 78 86 81 81 86 90 87 76 75 75 68 57 51 44 38 36 32 31 35 33 32 31 30 32 36 35 35 35 34 34
94 94 89 89 86 84 90 85 85 91 93 91 90 86 87 80 75 69 58 49 42 39 33 29 29 33 31 29 29 30 32 34 35 35 34 34 34 34
91 89 87 86 83 83 84 93 96 97 98 97 93 85 76 67 61 50 45 40 34 30 27 24 23 28 26 26 26 27 31 32 32 31 34 34 34 34
79 84 85 86 89 91 95 96 96 97 89 83 79 73 62 50 48 44 37 32 28 24 20 18 18 18 19 23 26 27 29 31 31 32 34 34 34 34
75 82 85 87 98 96 97 98 92 84 80 71 65 61 56 47 41 34 29 25 21 17 16 18 19 20 22 24 29 30 30 30 31 31 31 32 34 35
90 93 94 97 98 98 96 88 81 76 69 61 51 43 40 35 31 28 25 21 18 18 20 23 23 24 25 26 27 28 28 29 30 34 35 35 36 38
95 99 99 98 93 82 79 72 66 56 48 44 41 37 33 33 29 24 22 24 26 23 23 24 28 29 31 33 34 35 36 37 36 40 40 42 46 46
94 97 97 86 78 69 60 53 46 40 39 34 31 28 26 25 24 24 27 29 28 27 29 34 39 40 45 47 51 54 55 54 53 51 50 49 51 51
91 78 69 66 62 53 45 37 32 30 26 24 25 24 23 19 23 27 30 34 36 37 39 37 39 33 33 34 39 44 51 63 73 76 72 64 62 62
73 66 56 48 39 32 28 21 18 18 18 18 18 16 19 27 32 35 36 40 42 43 43 35 32 33 35 36 39 45 53 61 70 78 84 81 78 77
44 38 31 27 22 20 22 19 14 12 12 12 14 21 28 32 36 40 45 46 46 40 39 42 40 40 40 40 42 48 53 60 67 72 72 71 69 65
29 24 19 16 14 20 18 13 12 11 12 18 27 31 36 41 47 47 47 53 51 42 46 47 46 48 46 48 50 51 54 57 60 63 63 63 62 61
18 16 14 12 10 9 10 10 11 19 26 31 35 41 48 49 48 52 59 61 56 54 56 58 56 60 65 62 63 63 64 64 65 67 70 70 69 67
15 12 10 9 9 9 10 13 21 31 36 42 47 48 49 52 60 64 66 67 65 64 67 72 71 73 74 73 72 73 75 77 77 79 83 85 85 82
12 10 9 9 10 11 16 28 34 39 43 46 48 50 55 61 64 67 67 67 69 73 77 79 80 82 84 83 80 76 74 79 83 82 83 85 84 85
10 10 10 11 13 22 33 37 40 44 46 49 51 54 58 63 66 67 66 68 70 76 83 84 85 88 89 88 84 77 80 80 78 79 81 83 83 83
11 11 12 15 26 34 37 40 43 46 49 52 54 57 60 63 66 67 69 71 73 76 80 85 88 91 93 92 83 84 82 82 83 84 85 87 88 86
11 12 16 27 34 36 38 41 45 47 50 53 58 60 62 65 66 66 69 72 75 78 80 83 85 87 89 90 90 84 85 84 88 91 92 90 89 90
13 16 26 34 37 39 42 43 45 47 49 52 55 60 61 62 65 65 67 69 73 77 83 87 89 89 85 84 87 95 87 87 88 91 91 89 87 88
16 24 34 37 40 42 44 44 45 47 49 52 54 57 61 62 63 65 69 71 71 73 83 91 94 95 93 90 86 87 95 90 89 85 84 84 83 83
23 33 37 41 44 46 46 47 48 50 52 53 55 56 56 60 66 69 69 71 69 70 79 90 95 96 96 95 90 89 91 95 93 90 86 83 81 82
31 36 41 44 48 50 51 51 51 53 54 56 57 56 54 56 64 67 66 63 60 64 71 84 93 94 96 96 91 89 86 87 91 92 93 94 92 87
34 39 45 47 50 53 53 53 55 56 59 61 63 63 60 56 58 64 63 61 62 59 62 73 89 95 96 96 95 91 87 87 89 87 89 95 97 95

GFSNE_prec_cthk_066.txt.gz
RH
88 94 99 98 95 92 95 92 93 92 86 84 83 87 90 92 95 93 89 82 75 68 56 46 39 36 33 33 33 32 33 31 30 34 38 38 37 36
93 91 98 97 97 91 91 93 90 89 86 93 93 95 97 97 97 93 80 73 64 57 48 41 38 35 33 33 33 32 30 31 32 34 35 35 34 35
78 88 88 90 96 90 88 88 92 91 96 98 99 99 96 92 87 79 69 61 61 54 46 40 34 32 33 31 30 28 28 29 29 29 31 34 34 34
75 82 82 81 81 81 82 88 91 93 99 99 98 93 84 76 73 72 68 59 45 38 33 28 25 24 22 20 22 26 26 27 29 30 31 32 33 34
81 79 76 79 78 78 86 95 97 97 98 93 87 82 75 67 59 52 45 35 31 24 23 22 20 20 20 21 21 24 22 21 25 27 27 28 31 34
82 78 77 76 83 96 99 99 97 91 84 77 72 66 59 52 44 41 36 31 26 21 24 22 22 22 22 23 23 24 26 27 28 30 35 35 35 35
85 76 87 89 99 99 97 89 79 75 66 57 54 46 39 33 30 25 23 22 24 23 26 26 28 29 28 29 29 27 27 27 28 33 38 39 43 48
84 85 94 98 90 84 77 72 62 49 45 41 34 28 26 24 22 20 22 25 25 26 31 33 35 32 30 27 23 24 27 29 32 38 39 40 46 55
90 95 90 83 77 69 51 39 32 26 22 24 22 20 18 18 19 22 28 30 33 39 39 36 37 35 30 30 29 30 31 32 35 38 44 43 50 61
87 81 67 47 38 33 27 22 16 16 15 14 15 16 18 23 28 31 35 40 43 42 44 42 42 36 38 36 34 35 38 41 42 43 48 51 53 62
52 40 31 27 22 15 17 15 15 12 10 9 11 16 23 28 32 38 41 42 42 46 49 52 45 44 43 42 44 46 48 50 50 50 53 57 60 60
23 20 17 14 12 15 13 12 9 10 12 16 24 28 32 35 38 40 42 48 54 55 58 55 53 56 55 62 64 64 66 67 66 64 61 61 64 68
16 14 13 12 9 9 9 10 10 17 25 28 31 33 37 40 43 48 54 57 59 58 59 60 61 66 70 66 67 71 72 74 73 70 70 72 71 74
16 13 12 9 8 9 9 12 19 27 30 32 35 38 41 44 48 53 57 59 59 59 62 66 67 71 73 71 72 75 75 76 73 73 75 75 73 73
14 12 10 9 10 11 15 25 29 32 34 36 39 42 44 47 51 54 57 58 60 63 66 69 72 76 79 79 78 77 73 75 78 78 79 79 79 80
13 12 11 11 13 19 27 30 32 35 36 38 41 43 47 51 52 55 57 58 57 60 68 71 74 79 83 86 84 77 79 81 79 81 83 86 88 90
14 13 13 14 21 28 30 33 36 37 39 41 42 45 47 50 53 54 56 56 59 61 62 69 74 82 88 92 85 84 82 83 84 85 88 90 91 90
14 13 14 21 28 31 34 37 39 40 41 42 43 45 47 50 53 56 58 61 63 63 62 64 70 80 89 91 93 85 86 86 87 87 87 86 84 86
15 14 20 28 31 34 37 39 41 42 43 45 46 48 49 49 50 52 58 65 67 65 62 65 68 77 86 88 92 95 87 87 86 84 84 84 81 80
16 20 28 31 34 38 41 43 45 47 48 49 51 52 53 54 53 52 56 61 62 59 58 59 61 71 87 91 86 89 94 88 86 84 83 83 80 77
19 27 31 34 38 41 45 48 50 51 51 53 55 58 62 63 63 59 56 60 63 63 64 66 58 62 80 93 91 91 91 92 91 90 86 84 81 81
27 32 33 38 41 44 48 50 52 54 55 57 60 62 63 65 66 66 61 59 62 63 58 56 50 59 77 93 93 91 89 89 90 91 92 94 93 91
32 34 36 40 44 47 50 53 55 59 63 66 68 69 70 69 68 68 63 60 62 57 53 46 48 63 79 93 95 91 89 87 88 88 90 96 97 97

GFSNE_prec_cthk_069.txt.gz
RH
69 69 75 85 91 91 88 95 98 95 97 95 95 92 90 92 90 94 94 93 94 95 90 81 71 64 57 49 45 41 40 42 41 38 38 39 43 42
67 74 77 84 91 91 98 94 92 98 97 93 84 87 87 92 91 98 96 95 91 84 77 70 64 62 56 51 45 44 44 40 38 37 40 42 41 39
72 74 76 80 80 94 95 92 94 92 91 95 87 88 91 92 94 94 91 85 78 76 73 67 59 48 41 38 37 36 36 35 33 32 33 33 33 32
69 73 80 83 85 81 76 94 91 86 84 87 84 90 98 97 93 89 84 76 64 54 47 42 38 35 32 30 26 24 26 27 27 27 28 31 34 33
77 81 85 85 83 84 77 81 78 79 79 80 98 96 89 82 74 68 59 49 40 33 29 24 24 23 20 19 18 19 21 23 25 26 27 27 28 28
78 82 87 86 84 87 84 84 77 75 85 91 86 78 70 61 49 38 35 32 24 20 19 18 22 19 20 20 20 23 23 22 23 26 26 25 26 28
83 87 91 92 91 89 79 78 82 84 81 75 66 54 43 35 30 25 21 18 13 16 18 19 24 23 23 24 25 24 26 27 26 26 28 30 32 34
91 99 99 97 96 90 91 85 80 68 54 40 33 27 22 19 17 15 15 16 19 22 26 27 29 28 28 28 26 26 26 27 30 32 34 35 38 39
98 98 97 93 89 82 70 61 47 30 22 15 13 16 16 15 14 15 22 28 31 33 36 32 32 33 35 35 32 30 30 30 31 34 40 41 42 44
97 94 84 75 65 47 32 25 16 13 12 12 12 11 12 16 24 28 31 34 34 34 40 40 43 44 44 44 38 37 39 41 42 43 46 49 52 50
61 47 38 30 22 14 13 13 11 13 12 9 9 12 21 25 28 31 33 37 42 45 49 50 50 48 47 47 48 52 54 55 55 56 58 60 61 60
25 21 17 14 11 10 9 9 10 10 10 14 20 24 27 30 33 35 38 44 49 50 53 52 53 52 49 54 58 61 61 62 62 64 66 66 67 64
17 17 14 12 10 9 8 8 9 11 19 25 26 28 32 35 38 41 45 49 52 53 53 55 54 56 60 57 61 65 66 67 68 68 67 67 68 71
17 15 13 11 10 10 10 10 13 22 25 28 30 33 35 37 39 43 47 49 52 54 55 56 56 59 62 62 66 69 71 73 72 69 71 73 74 75
17 15 14 13 13 13 13 18 25 27 29 31 34 37 38 39 40 42 45 47 49 51 53 57 59 61 63 65 71 74 74 74 74 76 76 78 80 82
20 17 15 14 14 16 22 26 27 30 32 34 37 38 39 40 41 43 44 46 49 53 59 61 59 60 61 65 74 77 81 81 78 80 80 81 82 84
20 19 17 17 18 25 28 29 31 33 35 37 39 40 41 42 45 45 44 45 48 54 55 58 57 58 61 64 68 80 83 83 83 82 81 79 80 79
22 21 19 20 26 29 30 32 34 35 37 40 42 44 45 47 49 50 50 52 51 54 56 56 57 59 59 58 67 73 86 85 86 87 84 80 79 79
23 22 20 25 31 31 33 35 37 39 42 44 46 47 48 51 55 58 59 60 58 56 58 61 62 61 58 51 57 78 88 88 88 86 84 83 79 78
24 22 24 32 33 34 36 39 41 43 46 48 50 50 53 56 59 61 62 62 61 58 57 61 57 52 50 50 57 69 92 91 90 85 83 84 83 81
25 25 32 36 35 36 40 43 45 47 49 51 53 56 61 63 65 66 67 67 66 60 58 59 54 51 47 52 67 77 88 95 93 90 88 85 82 79
28 32 36 38 38 40 43 46 48 50 54 57 61 66 68 70 68 66 68 67 64 59 59 57 55 49 51 61 74 86 91 92 93 93 94 91 87 83
33 36 39 41 42 43 46 49 53 56 60 63 67 71 72 71 69 68 68 67 62 60 61 58 55 48 53 63 81 91 94 93 92 92 91 96 97 96

GFSNE_prec_cthk_072.txt.gz
RH
73 77 77 78 81 85 88 90 92 94 95 91 90 99 97 97 97 97 88 87 88 84 87 87 87 83 71 69 65 64 62 61 62 57 53 50 52 52
69 75 80 83 84 86 88 90 90 91 91 94 97 96 98 98 97 96 91 87 84 89 87 85 84 80 74 68 63 55 55 56 51 50 50 51 52 49
64 68 75 80 83 87 90 91 93 91 92 91 97 96 97 97 95 87 82 87 89 88 79 69 65 61 55 51 48 46 47 45 43 42 43 43 47 46
67 73 75 80 84 84 83 87 91 88 87 86 84 96 90 87 83 81 81 77 70 61 56 50 45 39 35 32 31 28 28 28 29 30 29 30 31 31
78 79 80 82 85 87 88 91 89 88 89 98 95 85 83 75 67 65 64 60 46 36 28 22 20 18 17 19 18 22 24 25 25 25 25 25 25 24
83 89 92 89 83 85 82 92 91 90 91 89 82 76 65 60 57 51 38 31 23 17 15 14 14 15 16 18 19 20 21 24 26 26 26 25 24 23
81 84 88 85 86 84 97 96 95 88 89 85 73 59 55 44 31 25 16 8 7 12 15 18 20 21 22 23 24 24 25 28 29 28 27 27 28 29
80 83 86 87 90 93 95 91 87 73 70 58 49 30 26 20 15 12 9 13 17 20 21 23 22 23 25 27 29 30 32 34 35 32 32 33 33 34
88 91 91 95 98 93 81 75 67 54 35 20 12 11 11 10 9 12 18 20 22 22 24 24 29 32 36 38 39 40 40 41 39 38 42 45 47 47
87 88 85 74 62 50 38 28 23 17 13 10 8 8 7 10 17 20 22 23 24 26 29 30 36 39 41 41 42 43 45 46 47 52 56 56 56 56
30 27 24 22 20 16 15 14 13 12 10 8 7 11 17 20 22 23 25 26 28 30 34 38 40 40 42 43 46 48 51 54 56 57 58 60 61 63
17 17 17 16 14 12 11 10 10 11 9 10 16 20 22 23 25 27 28 30 33 35 37 40 43 45 44 44 48 53 57 61 62 64 65 65 68 67
19 19 18 15 14 13 12 12 12 12 13 18 21 23 25 27 28 31 33 34 36 37 40 44 45 48 51 47 45 50 57 63 68 71 71 70 69 68
19 19 19 17 16 15 14 14 14 17 22 23 25 27 29 30 32 34 35 37 39 40 41 46 49 53 54 51 48 46 51 62 73 74 73 72 73 73
23 22 21 19 18 17 16 17 23 25 26 27 29 31 32 33 35 37 39 41 42 41 42 49 52 53 54 52 51 53 51 53 70 76 75 75 74 76
24 23 22 21 20 20 22 27 28 28 30 31 31 32 34 36 38 41 43 44 45 46 49 52 54 54 53 54 56 52 49 54 62 76 77 75 75 75
26 25 24 23 22 24 30 31 31 32 32 33 34 35 36 40 43 45 47 49 53 54 56 55 56 57 57 56 48 46 41 48 61 77 81 79 78 73
27 25 24 23 24 30 33 33 34 35 35 36 38 38 41 44 45 48 52 56 57 58 60 59 55 55 52 50 50 41 47 56 66 84 86 80 75 76
27 26 25 26 30 35 35 36 38 39 39 41 42 43 44 46 49 54 58 61 62 64 64 63 57 57 53 48 42 55 57 65 77 86 86 82 78 76
27 27 27 30 37 38 38 40 43 44 44 45 47 48 51 53 58 65 67 67 64 63 62 62 58 59 58 52 44 44 62 72 87 86 86 84 80 79
28 28 30 35 40 41 41 43 45 46 47 48 53 55 59 61 66 69 70 69 67 64 62 57 59 60 59 53 47 45 56 81 93 91 88 86 84 81
32 32 35 39 43 44 44 45 45 46 50 54 60 63 65 67 72 72 72 71 68 63 57 56 57 56 57 55 50 47 54 75 93 95 92 88 84 80
38 37 39 42 44 43 44 43 44 50 57 62 65 69 70 74 75 75 76 73 67 62 60 57 55 56 57 57 54 50 60 79 90 91 91 94 92 89

GFSNE_prec_cthk_075.txt.gz
RH
46 49 53 60 70 81 92 96 98 96 94 95 96 98 93 95 97 97 99 98 97 97 95 96 92 86 77 76 77 76 78 73 73 69 66 62 59 58
40 49 50 56 64 72 81 89 96 99 98 97 98 97 96 95 97 98 98 96 95 93 89 91 87 79 80 76 70 64 60 59 58 56 55 57 57 53
43 47 54 59 66 74 75 78 89 90 93 95 97 98 95 91 91 94 93 91 91 88 87 79 65 55 52 47 47 47 46 46 46 45 46 47 49 47
47 50 58 64 74 85 85 81 90 92 96 94 96 94 91 92 90 91 90 87 75 61 54 41 38 36 32 30 30 28 28 27 27 26 26 27 29 32
53 56 60 66 73 81 89 88 88 94 89 93 88 90 91 92 87 85 73 59 46 34 29 22 18 15 12 14 17 20 20 20 22 22 22 23 23 23
57 60 66 70 72 79 82 84 81 87 89 92 97 87 86 79 69 59 48 37 30 20 15 12 14 17 19 20 21 21 21 21 21 23 26 25 24 24
62 65 66 69 74 78 85 89 85 82 88 96 82 76 64 59 47 32 21 15 10 12 16 19 21 21 22 22 23 24 25 26 30 32 31 30 30 27
67 70 73 78 80 84 91 95 97 90 83 77 66 54 34 20 12 10 9 11 17 19 20 21 22 22 23 27 29 31 33 34 38 40 40 40 38 35
67 67 68 73 76 78 72 64 53 44 40 33 21 14 10 9 9 9 16 19 21 23 21 20 23 25 27 29 33 36 37 37 38 39 42 44 45 46
34 31 26 21 18 18 18 16 16 16 14 13 11 10 8 8 13 19 21 23 23 23 25 25 27 28 30 31 35 39 40 41 42 44 46 48 51 52
15 15 15 16 17 15 14 14 14 13 13 14 12 12 13 19 21 23 24 24 24 26 27 27 28 27 31 32 37 42 42 43 44 46 49 52 54 60
17 17 17 17 16 16 15 14 14 14 14 13 15 19 21 23 24 25 26 27 28 28 29 30 32 33 32 37 39 38 38 41 44 47 50 56 62 64
20 20 20 20 20 19 17 17 17 16 15 18 24 25 25 27 27 28 29 29 29 31 33 35 35 37 39 37 37 38 38 40 43 44 48 59 69 68
23 23 23 22 21 20 19 19 19 21 24 27 27 27 29 29 30 30 30 31 33 35 36 37 40 43 43 43 42 41 43 45 46 42 45 55 69 74
25 24 24 23 22 21 21 22 25 29 30 30 31 31 31 31 31 32 32 34 37 39 40 42 46 47 47 47 46 43 39 35 36 39 41 50 66 75
26 25 24 23 23 23 25 27 31 32 33 34 34 34 34 34 34 34 35 38 40 45 50 50 52 53 51 51 50 45 43 42 36 42 50 56 73 78
26 25 24 24 24 25 28 31 33 34 36 37 39 39 39 39 39 39 39 41 45 49 54 58 59 57 55 53 50 49 43 41 45 49 59 68 79 80
27 26 25 25 25 28 32 34 35 38 41 42 43 44 43 43 43 44 46 48 52 59 62 63 59 55 53 53 55 50 46 43 42 48 66 76 80 82
29 28 28 28 28 33 37 39 41 43 44 46 46 45 45 48 51 54 57 59 61 65 67 63 60 56 53 52 53 56 49 46 45 49 69 82 83 82
31 31 31 32 34 39 42 43 44 44 44 44 45 46 51 54 60 63 65 64 68 69 67 66 61 57 57 54 49 48 52 49 48 48 69 86 85 83
35 35 35 36 38 43 46 44 43 44 44 45 48 53 59 63 68 70 71 72 74 72 69 64 62 61 59 56 49 47 49 54 52 53 73 87 85 82
40 39 39 39 39 42 44 44 43 44 45 47 53 59 64 70 74 76 76 79 77 75 69 64 62 62 61 59 53 50 48 46 47 52 81 88 85 82
45 44 41 39 39 39 41 43 42 42 44 49 55 62 70 76 78 80 82 82 79 72 67 64 64 65 63 60 57 53 52 47 45 47 82 90 88 86

GFSNE_prec_cthk_078.txt.gz
RH
33 35 38 42 45 47 52 58 63 71 78 79 88 85 96 97 95 96 99 98 97 98 97 98 96 94 93 94 93 86 88 86 79 72 68 66 64 64
32 33 37 38 43 43 50 54 59 71 83 85 84 83 91 96 97 98 99 97 96 95 95 94 93 91 87 85 84 77 70 61 56 53 51 54 57 57
34 37 41 41 44 49 51 55 59 67 79 88 85 84 86 93 99 97 99 97 90 91 95 95 88 81 67 57 51 44 41 39 37 35 34 33 34 36
37 41 41 43 47 51 52 55 64 70 79 81 82 90 89 98 93 95 91 89 89 93 84 67 45 34 29 25 23 20 17 19 20 20 20 21 22 23
41 45 48 51 55 55 60 62 66 71 73 75 79 85 84 85 87 97 90 84 67 52 43 30 22 15 10 11 13 17 18 17 17 16 17 20 23 24
49 52 51 55 59 59 62 65 69 75 78 80 76 76 82 92 86 76 63 51 42 31 18 10 11 14 16 16 17 17 17 17 18 20 21 25 27 27
52 52 55 59 61 63 66 70 75 80 83 86 88 89 79 72 67 54 39 22 12 8 11 16 17 18 18 18 18 18 19 21 23 27 32 35 35 35
53 50 48 52 53 56 57 56 59 60 66 65 56 47 42 37 27 16 11 8 10 15 18 19 18 20 20 21 21 22 23 24 25 28 33 39 40 40
36 36 34 35 36 36 33 28 21 17 16 15 14 14 13 12 11 9 8 13 19 20 19 20 22 24 25 25 24 24 26 27 28 32 37 38 40 44
21 19 16 15 14 14 14 14 14 15 15 16 15 14 13 12 11 11 18 20 21 22 22 23 25 24 24 24 24 27 31 32 32 33 35 35 36 40
16 16 16 16 16 15 16 16 16 17 17 16 16 15 15 16 19 22 22 23 24 25 26 25 25 25 26 29 31 34 35 34 33 35 37 36 37 39
18 18 19 19 19 19 18 18 18 18 18 18 17 20 22 25 26 26 26 27 28 28 28 29 28 28 30 34 36 36 35 32 32 34 38 40 42 42
20 21 22 22 22 21 20 19 19 18 19 18 21 25 28 29 30 30 31 30 31 32 34 34 32 34 38 38 42 41 40 41 40 37 36 37 40 40
24 24 24 23 22 21 21 20 20 20 22 24 28 30 31 33 33 34 34 34 34 35 36 37 35 38 42 43 42 44 42 42 40 36 36 36 35 38
26 26 26 24 23 23 22 22 23 25 28 30 31 33 35 36 37 38 39 39 39 39 40 40 42 45 48 50 48 46 43 42 42 39 38 38 38 42
28 28 26 25 24 24 25 26 28 31 33 35 37 39 40 41 42 42 41 40 40 42 44 46 48 51 55 57 52 46 46 46 43 41 40 38 41 49
30 29 28 27 26 26 28 31 34 36 37 39 40 40 41 42 42 41 40 43 45 48 52 55 57 61 63 60 53 49 48 46 44 42 42 39 40 55
33 32 31 29 28 29 32 36 37 38 40 41 41 41 42 42 43 46 49 52 55 59 62 65 64 66 63 59 56 50 48 47 46 46 45 43 39 55
36 35 34 32 32 33 36 40 40 41 42 43 43 43 43 44 46 52 58 62 66 68 71 69 70 68 62 58 56 58 51 48 46 47 47 45 42 57
40 39 38 37 37 38 41 42 43 44 45 46 46 45 45 45 50 56 63 69 71 73 73 76 75 69 67 61 58 57 59 53 49 46 45 45 43 63
45 44 42 41 42 43 44 43 44 43 46 47 46 46 47 48 53 60 67 72 74 76 79 79 75 70 66 63 60 57 57 58 56 52 48 47 46 67
49 49 46 45 45 45 44 44 43 42 46 46 45 46 48 51 57 63 69 72 75 79 79 77 73 69 67 65 61 59 57 54 53 51 50 50 50 61
51 52 51 48 48 46 45 43 39 39 45 46 45 46 49 53 59 65 68 71 76 79 77 74 73 73 72 70 67 61 59 57 53 45 45 48 48 56

GFSNE_prec_cthk_081.txt.gz
RH
34 30 30 31 33 38 42 42 46 46 48 47 49 52 60 69 82 89 88 93 95 91 98 97 98 98 96 96 95 97 92 93 89 88 81 75 72 74
26 28 30 34 36 41 43 45 47 50 49 50 52 56 60 69 74 80 87 94 96 94 97 96 96 94 93 92 91 91 88 82 75 66 58 56 54 51
26 28 31 34 37 39 42 45 49 50 50 53 58 60 64 66 74 81 84 90 90 88 88 87 90 92 93 84 68 51 42 38 34 33 31 30 30 29
29 32 34 37 40 44 46 49 51 51 54 59 62 63 65 66 72 77 80 81 86 90 91 91 83 64 45 34 27 21 19 22 22 19 18 20 22 23
34 37 40 44 48 48 50 52 54 55 59 62 64 66 68 69 69 72 79 85 88 83 70 51 40 29 15 8 10 12 14 15 16 15 15 16 17 19
42 44 47 48 49 49 50 52 53 55 58 60 63 68 72 75 76 78 77 72 61 50 36 19 8 7 11 14 15 16 16 17 16 16 17 18 22 27
46 47 47 45 45 43 43 43 43 42 44 47 51 52 53 52 49 43 36 29 24 16 8 7 11 15 16 16 16 17 18 19 19 18 19 23 26 29
47 39 35 32 32 33 36 37 38 39 41 41 37 32 32 27 24 23 19 14 10 10 12 17 18 18 17 18 20 21 22 22 22 22 22 23 26 28
31 29 26 26 25 24 20 17 15 15 14 14 14 14 15 15 15 16 15 14 15 18 20 20 19 19 21 22 22 22 22 23 24 25 26 27 25 24
18 15 14 15 15 15 16 16 16 17 17 16 17 17 16 16 16 16 15 18 22 24 24 21 22 23 23 22 22 25 27 27 27 28 28 27 27 28
16 16 16 17 18 18 18 18 18 18 18 18 17 16 15 15 23 22 24 27 28 29 27 26 26 24 25 24 26 29 30 31 30 29 29 29 29 30
17 18 20 20 21 21 20 20 19 18 17 17 16 16 19 20 23 26 28 31 32 30 31 30 30 30 27 28 32 34 34 34 35 35 35 34 31 31
20 21 22 23 23 23 21 20 20 19 18 18 19 20 23 26 29 32 34 35 36 37 38 38 37 37 36 33 35 37 38 40 38 39 38 36 35 34
23 25 25 25 24 23 23 23 22 21 22 22 24 28 29 31 34 37 37 38 39 40 41 42 41 41 41 40 39 45 49 49 46 43 41 40 39 38
26 26 26 26 25 25 25 25 25 26 27 29 31 32 34 36 38 38 39 39 39 40 41 42 43 44 46 46 44 52 52 52 48 45 44 42 42 42
30 29 28 28 28 28 29 29 29 30 33 34 35 35 36 38 40 41 40 39 39 41 45 49 52 54 55 58 58 59 60 53 49 47 45 45 44 43
32 32 31 31 31 31 32 32 33 36 38 37 38 39 39 41 43 43 42 41 43 48 57 63 64 64 66 65 65 65 60 54 52 48 46 45 46 45
36 35 35 35 35 36 36 36 37 39 41 41 42 42 41 43 43 45 45 45 46 52 58 67 72 71 69 71 71 66 61 56 55 52 50 47 44 45
40 39 38 39 40 41 40 40 41 42 43 45 45 44 42 44 45 47 46 46 49 55 62 68 71 71 72 76 72 70 60 60 58 55 54 51 46 42
45 44 44 45 45 45 44 44 44 44 45 47 46 46 44 44 48 48 48 48 52 57 63 69 72 77 76 74 69 66 62 60 60 58 55 52 47 42
48 48 49 50 51 50 48 47 45 44 46 46 47 46 44 46 51 51 49 51 55 59 64 69 75 75 74 71 69 67 70 69 65 61 58 54 46 43
52 52 54 53 57 57 53 51 48 44 43 44 45 42 45 49 52 51 51 53 57 60 63 69 73 73 72 70 68 67 67 69 68 64 60 58 54 45
54 53 55 56 62 63 58 54 50 47 44 43 41 39 45 49 54 54 53 55 59 61 63 67 72 74 74 73 70 67 67 68 66 62 60 58 53 47

GFSNE_prec_cthk_084.txt.gz
RH
40 40 37 33 29 30 32 34 39 44 42 44 47 48 48 48 52 51 56 60 66 80 93 94 92 92 88 90 91 94 96 96 97 97 95 89 84 79
35 35 31 27 29 32 35 37 42 44 44 45 49 49 51 53 54 55 56 61 69 75 87 83 81 81 81 83 85 86 89 94 90 80 73 67 63 55
33 32 26 28 31 33 37 38 40 43 45 46 47 53 55 56 57 57 58 59 67 72 74 81 84 83 86 87 88 83 62 47 42 37 34 31 31 33
30 28 27 32 35 38 41 44 46 47 47 49 50 50 52 56 57 56 60 62 63 70 78 82 83 82 76 55 40 31 27 20 17 17 16 17 19 21
29 29 34 39 42 43 44 46 47 47 47 49 48 44 44 46 49 53 58 61 62 68 67 66 56 35 23 13 7 7 10 13 14 15 15 16 16 18
33 38 42 44 43 45 44 42 40 39 40 39 39 40 42 43 45 48 50 50 46 41 31 23 19 12 8 8 11 14 15 14 14 15 18 18 20 23
43 45 46 42 36 36 34 34 34 35 36 37 38 39 40 40 38 36 34 32 28 22 18 13 12 12 14 18 18 16 16 16 18 19 21 21 24 25
46 46 36 33 32 31 30 30 30 29 28 29 28 24 22 19 17 16 14 14 13 12 11 14 16 19 20 19 17 18 20 21 21 20 21 22 24 25
36 30 26 25 21 18 16 15 16 16 16 16 16 16 16 15 15 15 14 13 12 14 15 18 23 24 23 23 22 22 22 22 23 23 24 26 27 25
18 18 18 17 16 16 17 18 18 19 18 17 17 16 16 15 14 14 14 14 16 18 22 24 25 25 25 25 25 25 26 27 28 30 31 31 29 28
19 19 18 18 18 19 20 20 20 20 19 18 18 17 17 17 15 17 18 20 23 26 29 30 29 29 29 28 28 29 32 33 34 35 35 34 34 32
19 19 19 20 22 22 22 22 21 21 20 20 20 19 19 20 21 24 27 28 30 33 33 33 33 33 33 32 34 35 39 41 40 40 38 37 36 34
22 22 22 23 24 24 23 23 22 23 23 23 23 24 24 26 28 30 32 33 34 36 37 37 35 35 34 33 34 39 41 43 43 44 41 40 39 37
25 26 26 26 26 26 25 24 24 25 27 28 29 31 31 31 32 34 36 36 36 37 37 37 37 37 37 38 39 48 49 51 51 50 46 46 44 42
30 30 30 29 29 28 28 28 28 30 31 33 35 35 35 35 36 38 38 36 37 38 39 38 37 40 42 46 48 57 59 63 62 54 51 50 49 46
34 34 33 32 32 31 31 31 32 34 36 37 38 38 38 39 40 40 40 38 36 41 43 40 41 43 48 55 58 63 67 63 63 57 56 52 51 46
38 38 37 36 35 34 35 36 37 38 40 41 42 41 42 42 42 43 41 40 40 42 44 46 47 48 51 56 60 64 65 64 63 62 56 53 53 50
40 40 40 40 40 41 41 42 41 41 44 46 45 44 44 45 45 43 42 42 44 45 45 46 49 52 54 57 61 66 68 66 65 60 56 54 53 52
43 44 46 46 46 45 46 48 46 45 47 50 48 47 46 46 46 44 45 46 48 49 50 49 52 54 57 62 66 66 64 62 60 60 60 58 55 54
47 48 48 50 50 49 48 53 53 50 49 52 50 48 47 48 46 44 47 48 50 51 53 54 54 56 60 64 69 68 64 63 64 64 64 63 59 54
51 52 53 53 54 54 51 56 59 56 54 53 50 47 47 48 47 45 48 50 52 56 56 58 57 58 60 63 64 69 72 69 68 66 65 64 59 56
53 54 55 54 56 56 55 59 64 62 57 56 53 50 48 46 45 47 50 51 54 58 60 62 61 60 62 63 64 67 73 76 74 70 70 69 65 59
54 56 56 56 58 59 59 63 69 65 60 59 57 54 52 49 49 47 50 54 55 60 65 66 68 67 64 66 66 67 68 71 72 71 73 73 67 63

GFSNE_prec_cthk_087.txt.gz
RH
40 38 36 38 37 36 32 30 32 36 38 40 45 43 43 43 46 50 52 52 53 54 55 63 68 76 74 75 79 80 83 88 90 91 95 97 96 92
42 42 38 36 35 33 29 30 35 38 41 44 44 44 43 45 49 51 54 55 54 54 55 61 66 69 73 77 78 80 83 83 85 85 76 67 66 65
43 39 35 33 31 29 29 34 36 39 42 44 44 44 44 46 47 50 52 52 55 56 55 57 60 68 70 74 75 75 72 56 41 41 43 40 39 38
40 36 33 30 28 30 34 38 41 43 44 44 43 44 41 40 40 43 46 47 48 51 51 54 56 58 62 61 51 32 19 16 20 27 28 24 22 20
35 32 30 28 32 37 41 42 44 42 41 38 37 36 36 37 39 40 41 43 45 47 49 50 48 44 34 23 18 11 8 8 11 14 14 14 14 15
31 30 31 37 40 43 43 40 36 34 33 32 33 34 35 37 38 39 40 40 40 39 36 32 24 19 16 11 12 14 16 17 15 14 15 15 15 16
34 38 42 43 43 37 34 31 29 29 29 30 31 32 33 33 31 28 26 21 17 14 13 12 11 11 12 14 16 19 20 19 19 18 18 18 18 18
45 45 45 39 34 32 29 26 24 21 21 21 22 22 20 18 16 15 14 13 12 11 11 12 13 14 16 20 22 21 21 23 22 20 19 19 19 20
46 42 33 29 25 20 17 16 16 17 17 18 18 17 17 17 16 15 14 13 13 13 14 16 18 20 22 23 24 25 26 25 24 24 25 24 25 25
31 22 20 19 18 18 18 18 19 19 19 19 18 18 18 18 17 16 15 14 16 19 21 23 24 25 26 27 27 26 26 27 28 29 29 30 31 31
20 20 20 19 19 20 20 21 21 21 20 19 19 20 20 20 20 20 22 23 24 26 28 29 28 28 29 29 29 29 30 31 32 33 33 35 36 35
21 21 21 21 21 22 22 22 22 22 22 22 22 23 24 24 26 27 28 27 29 31 32 32 30 31 31 31 29 28 28 30 33 35 36 38 39 38
22 23 24 24 25 25 25 24 24 24 24 25 26 27 29 31 32 32 31 31 33 34 35 32 32 32 34 33 31 33 34 36 40 43 46 47 46 45
25 26 28 29 29 29 28 27 27 27 27 28 30 32 34 35 36 35 36 36 35 36 35 33 33 34 35 32 31 36 40 43 49 53 54 55 55 51
29 31 33 33 33 32 32 31 30 30 32 34 36 37 38 39 39 39 39 38 38 38 35 35 36 37 37 36 36 41 44 48 54 58 61 60 58 54
34 36 37 38 38 37 36 35 35 36 38 40 41 42 42 43 43 43 42 41 40 42 37 38 39 40 40 39 41 44 48 49 54 54 57 63 62 58
40 41 42 41 41 41 41 41 42 42 44 45 46 47 48 48 48 46 45 44 44 40 39 42 44 44 43 42 43 48 50 52 55 59 61 62 60 56
44 43 44 44 45 46 47 46 46 46 49 51 50 50 51 51 51 48 47 46 47 44 42 44 46 47 46 45 46 50 55 57 57 58 57 55 58 58
46 46 48 49 50 51 52 51 50 51 53 56 56 54 54 55 53 51 50 50 50 48 47 48 50 51 50 49 48 53 55 57 57 57 57 58 60 62
47 49 51 53 54 55 56 56 55 55 56 60 60 57 56 55 53 52 52 53 53 53 52 54 57 58 58 56 52 55 60 59 60 61 63 61 60 60
46 47 50 53 55 56 59 59 58 58 59 62 64 62 59 57 55 54 54 56 59 59 56 58 61 63 62 64 62 59 61 63 64 65 67 66 63 62
45 46 47 51 57 58 59 61 61 63 63 64 69 66 62 61 60 58 57 60 61 59 56 58 62 65 66 68 70 69 67 68 69 69 69 68 67 65
48 49 49 53 59 57 58 64 68 68 67 71 73 69 65 63 61 59 55 54 56 56 55 58 62 65 68 68 69 69 71 71 71 72 74 73 71 68

GFSNE_prec_cthk_090.txt.gz
RH
47 43 46 42 41 41 43 42 40 39 35 34 37 39 44 41 43 42 44 45 50 54 53 52 53 54 59 62 66 68 71 73 73 77 80 81 86 89
42 47 47 43 44 41 40 37 35 34 37 39 41 42 42 41 41 42 42 44 46 48 51 52 53 53 56 60 61 64 65 67 69 72 74 76 68 59
41 46 44 43 44 37 35 33 32 34 38 40 43 43 40 39 38 35 35 38 44 45 47 47 47 50 53 54 57 59 61 60 50 34 24 31 34 38
44 41 44 41 37 35 32 31 35 38 41 43 42 38 36 35 35 37 38 40 40 41 43 44 45 47 50 51 55 53 32 20 16 12 11 16 20 29
46 46 39 37 35 32 32 38 40 41 42 38 35 34 33 33 34 35 36 37 37 37 39 40 41 40 37 29 20 18 17 12 11 13 16 16 13 13
40 39 37 34 32 35 42 42 40 37 33 31 31 31 31 32 33 32 32 32 32 31 29 24 21 19 17 14 12 11 11 13 16 18 18 18 17 16
38 35 36 36 41 45 41 34 32 30 30 29 29 28 28 28 28 26 24 21 18 15 13 12 12 12 12 13 12 14 16 18 19 20 21 22 22 22
43 39 44 47 46 38 31 29 28 27 23 23 22 23 22 21 18 17 17 16 19 13 13 13 13 15 16 17 18 20 20 21 21 22 23 23 24 23
49 49 49 44 33 27 22 20 18 17 17 18 18 19 19 18 18 18 17 17 16 15 15 18 19 21 22 23 23 23 23 24 25 25 25 26 28 27
52 49 37 24 20 20 20 19 19 19 19 20 20 20 19 19 19 19 19 19 19 21 23 24 25 26 26 25 24 23 24 24 24 25 26 25 25 28
38 24 20 20 21 21 21 21 21 21 21 21 21 21 21 22 22 23 25 26 28 28 28 29 30 30 28 26 23 24 25 26 26 25 25 26 28 30
23 21 20 22 22 22 23 23 23 23 23 24 24 24 24 25 27 29 30 31 32 34 33 33 33 32 30 27 26 26 28 28 27 26 27 30 32 36
22 21 23 24 24 25 26 26 26 26 26 27 27 27 29 32 33 33 35 35 36 37 37 36 34 33 31 29 28 30 31 31 29 30 31 34 38 42
22 25 26 27 28 29 30 30 30 30 30 30 30 33 35 36 36 38 39 39 40 41 40 39 37 36 33 31 30 33 36 36 35 35 36 37 42 46
27 29 29 30 32 34 34 35 34 35 35 35 37 39 40 41 42 42 43 43 43 44 42 41 41 40 36 35 34 36 37 38 39 39 41 42 44 46
30 30 33 36 38 40 40 40 39 40 41 42 44 45 46 46 45 47 48 48 47 46 46 46 46 45 42 40 39 39 41 42 43 42 43 46 48 51
32 35 39 42 44 43 43 44 45 45 46 47 49 51 52 51 49 51 52 51 50 50 50 52 52 53 51 47 44 45 45 46 48 46 47 51 51 51
36 39 43 46 46 46 48 50 51 50 51 51 52 54 56 55 54 54 55 55 54 54 55 55 58 61 59 55 52 51 51 52 53 54 51 52 55 52
39 41 44 47 49 50 52 55 57 56 55 55 56 57 59 60 58 57 57 56 56 57 57 55 56 59 59 57 58 57 57 58 60 60 58 54 59 62
42 44 46 47 49 51 53 56 58 60 59 59 59 62 63 64 63 61 59 58 55 52 52 54 55 57 58 58 60 63 64 66 67 67 68 66 61 64
44 46 49 48 48 48 48 51 56 61 62 62 64 68 69 70 68 65 63 56 50 49 49 49 51 53 53 54 55 58 64 66 68 70 72 72 70 67
45 46 46 47 47 47 49 50 57 63 61 65 71 73 73 74 72 68 59 53 49 47 45 45 48 50 51 53 55 52 50 54 56 60 64 67 70 70
44 45 46 47 48 51 50 51 54 62 69 71 75 76 76 75 74 66 56 52 50 48 46 48 49 50 53 53 50 49 53 58 62 63 68 74 74 72

GFSNE_prec_cthk_093.txt.gz
RH
46 47 49 49 48 47 47 44 44 45 43 41 35 35 38 41 40 40 39 38 38 39 42 43 45 48 48 49 49 53 54 52 55 57 60 62 66 68
48 45 57 51 48 47 49 44 45 43 45 38 37 39 41 42 41 37 37 34 34 36 39 42 45 45 46 46 47 49 49 52 55 55 54 55 53 46
48 51 51 56 46 50 42 45 40 40 40 36 40 41 42 40 36 34 32 31 32 36 38 39 40 43 44 45 47 47 48 50 52 50 33 24 27 23
50 56 57 59 48 49 44 39 39 37 37 39 43 42 40 36 34 32 31 32 34 36 36 36 38 40 40 41 42 45 45 36 22 18 18 13 9 11
57 58 54 52 51 50 41 39 34 37 42 42 41 38 37 34 32 31 31 32 33 33 34 33 34 36 36 34 27 21 17 14 11 9 10 11 13 15
51 51 52 51 44 41 37 35 39 43 45 36 34 32 32 31 31 30 30 30 28 28 27 25 21 17 14 14 14 13 13 13 13 14 16 17 17 16
47 42 41 41 38 37 39 44 43 41 33 30 30 30 29 29 27 26 26 23 20 16 15 14 13 13 13 14 15 16 16 17 18 18 18 19 20 21
40 42 42 41 40 46 47 46 38 32 29 28 26 26 25 23 22 20 17 17 19 16 16 15 15 16 17 19 21 21 22 21 21 19 20 21 22 23
44 42 45 47 55 51 43 36 28 25 22 21 20 20 20 19 18 18 18 18 18 19 18 19 20 21 23 25 25 25 24 23 22 21 21 22 22 24
51 55 55 52 48 37 29 21 20 21 21 21 20 20 20 20 19 20 20 21 22 22 24 25 27 27 28 28 28 27 25 23 21 21 22 22 24 23
58 54 52 38 27 26 21 21 22 23 22 21 21 21 22 22 22 23 25 27 29 29 29 30 31 31 32 31 30 29 27 25 22 23 24 24 24 25
60 39 28 28 24 22 22 24 25 24 24 24 24 25 24 25 26 28 30 31 32 34 34 35 34 35 34 34 33 32 29 28 25 25 25 26 26 27
34 29 29 25 22 23 26 27 27 27 27 27 28 28 29 29 31 34 35 36 37 38 38 39 38 38 37 36 36 36 34 32 30 28 29 29 30 32
31 28 26 24 24 28 29 29 30 31 32 32 33 34 34 35 38 39 40 41 40 41 42 43 42 41 41 40 39 36 38 38 36 34 33 32 34 36
32 28 29 27 30 31 31 33 34 36 38 39 39 39 41 43 44 45 45 44 44 45 46 46 46 46 45 42 40 40 41 40 40 39 39 37 38 40
30 33 29 32 33 34 36 38 41 43 43 43 44 45 47 49 50 50 50 48 48 49 49 50 50 48 45 44 45 44 44 43 43 44 43 43 43 44
35 32 34 35 36 39 42 44 46 47 47 48 49 51 53 53 53 53 53 54 54 54 53 54 51 47 48 48 48 47 46 45 46 49 49 48 51 51
35 35 36 38 42 44 46 48 50 52 54 55 56 56 56 56 56 56 58 59 59 58 57 54 49 47 47 47 47 48 47 48 49 52 55 57 60 63
35 36 38 42 45 46 48 50 53 56 58 59 58 59 58 59 61 61 63 63 62 61 59 50 46 46 47 45 45 47 48 50 53 56 59 60 61 67
37 38 41 43 45 46 48 50 51 52 53 54 56 61 59 60 65 68 69 69 65 62 55 46 44 44 46 45 45 46 48 51 52 49 46 48 51 54
38 39 42 44 45 47 50 49 49 49 50 53 57 60 60 63 71 72 73 72 69 64 52 44 44 46 47 44 44 44 47 48 46 44 50 54 54 53
39 41 44 44 45 46 46 46 48 48 50 54 56 59 66 70 75 76 74 74 71 60 50 48 45 44 42 42 43 44 44 45 46 51 59 62 62 56
43 41 42 44 44 44 46 47 49 52 56 56 58 62 69 77 79 78 77 76 67 54 51 50 48 46 46 47 48 46 44 46 47 55 62 68 69 65

GFSNE_prec_cthk_096.txt.gz
RH
52 55 59 57 53 59 61 56 52 55 49 44 44 42 38 35 35 37 38 39 38 37 35 35 38 38 40 41 43 43 42 41 44 45 46 49 50 49
53 54 58 48 57 54 65 56 55 49 49 47 44 42 40 40 38 39 41 35 34 32 33 35 36 37 38 40 40 41 41 40 43 44 44 46 45 41
50 56 48 59 55 61 65 58 57 49 49 47 43 39 40 42 41 37 35 32 32 32 33 35 36 36 37 39 40 40 39 39 40 41 43 36 22 16
54 55 55 55 58 62 69 64 55 49 46 43 38 40 44 44 37 34 35 33 33 33 34 34 34 33 35 36 36 36 37 38 37 26 17 13 10 9
61 58 55 58 56 59 60 54 49 45 39 34 41 42 42 39 35 32 33 32 32 33 32 32 32 30 30 29 28 25 20 17 15 13 12 12 12 14
59 59 60 59 59 57 52 43 42 39 36 41 42 40 39 34 32 30 31 30 30 28 26 25 24 21 17 14 13 13 14 15 15 16 17 17 18 17
56 56 57 59 57 50 43 43 39 39 48 41 34 36 32 31 29 29 28 26 24 20 18 16 15 14 14 13 14 16 18 20 21 22 21 20 20 19
51 52 55 52 50 43 42 43 49 53 40 34 36 31 28 26 26 25 24 21 18 18 18 18 17 17 18 18 20 22 24 25 25 24 23 22 21 19
53 54 53 49 46 44 46 52 52 41 33 34 30 25 23 22 21 20 19 19 20 20 21 21 22 23 24 25 26 27 28 28 27 26 25 22 21 21
53 50 47 46 47 55 59 53 40 29 30 25 23 23 22 21 21 20 21 22 23 24 26 27 27 28 30 30 30 31 31 30 29 26 23 23 22 24
59 57 56 58 58 55 40 26 23 28 24 23 24 24 23 22 22 23 24 25 27 29 31 30 31 33 34 33 33 33 33 32 28 26 26 25 24 26
63 64 65 65 55 33 26 29 29 24 26 27 26 25 24 25 25 27 28 30 32 34 33 36 36 36 37 36 36 35 34 29 29 30 30 28 27 28
69 69 60 41 34 29 28 29 25 28 29 28 28 28 29 30 31 33 33 35 37 39 39 40 39 40 41 40 38 38 31 30 31 31 33 32 31 32
57 45 39 33 31 30 31 27 30 31 31 31 32 34 35 36 38 38 39 41 42 43 44 44 44 45 44 43 42 36 33 33 34 35 36 36 36 36
48 42 38 34 33 33 30 31 33 34 35 37 39 40 42 43 42 44 46 47 47 48 48 49 49 50 49 48 43 35 34 35 36 38 39 39 39 41
47 43 38 37 36 34 35 35 38 39 42 45 47 48 47 47 49 50 52 52 52 52 52 53 54 55 54 51 43 38 39 39 40 40 41 42 42 45
50 44 39 36 35 38 37 40 42 47 50 51 51 50 51 53 54 56 57 57 57 57 58 59 58 58 58 50 42 39 39 39 40 41 42 43 46 50
49 41 39 37 39 39 42 44 49 52 53 54 56 57 57 57 59 60 60 60 62 64 64 63 63 61 58 47 41 40 38 38 40 43 44 44 46 46
46 44 45 41 40 42 44 49 52 53 54 56 57 58 58 57 60 59 61 64 67 67 66 65 62 61 54 43 42 38 37 38 40 41 41 41 37 36
48 48 43 40 40 42 46 50 50 51 52 55 55 55 55 54 57 58 65 70 71 70 69 67 64 60 46 43 42 39 38 39 40 38 38 39 38 41
47 41 38 38 40 42 47 48 49 49 51 51 51 53 54 55 58 60 68 74 75 73 72 69 68 55 47 45 42 39 40 40 40 38 38 40 39 47
44 43 42 42 42 42 44 50 49 47 49 48 48 50 53 59 60 64 72 77 76 75 74 74 70 54 48 43 41 41 43 44 44 42 42 43 43 53
46 46 46 44 41 41 47 48 46 46 46 48 49 53 63 61 62 69 76 77 78 78 77 77 66 56 50 46 46 45 45 43 43 40 42 45 45 55

GFSNE_prec_cthk_099.txt.gz
RH
57 52 57 59 59 58 62 63 61 69 60 60 58 47 45 46 44 37 36 40 40 37 35 33 34 35 37 38 40 42 41 42 42 39 38 38 39 41
48 50 52 61 61 58 63 58 69 71 70 62 61 51 51 48 40 39 39 41 38 34 31 31 33 35 37 37 37 38 38 39 38 38 39 38 38 38
51 55 58 56 58 60 60 68 62 62 71 57 62 56 52 42 40 38 40 37 33 32 30 31 33 35 37 36 37 38 38 37 38 38 38 36 31 22
53 52 53 58 58 55 63 62 62 63 68 61 56 51 43 40 43 43 39 36 33 34 32 32 33 33 33 33 34 34 33 34 35 35 26 18 14 12
56 59 59 62 62 60 61 58 64 64 61 50 46 44 40 45 44 41 40 34 33 33 32 31 31 32 32 30 28 27 24 19 17 15 15 15 14 15
57 58 60 62 63 63 62 59 66 61 51 46 44 41 50 45 39 40 36 34 31 30 28 26 25 25 23 20 16 14 14 14 15 16 18 20 21 20
56 56 56 59 59 61 61 60 57 53 48 43 45 51 48 39 38 40 34 31 28 26 22 19 17 17 17 16 16 17 18 19 21 24 25 25 23 21
56 56 55 55 59 58 59 56 54 51 40 46 50 44 36 38 38 31 30 27 24 19 19 19 19 19 19 19 20 23 25 27 27 27 28 26 24 20
61 55 54 53 51 55 55 55 53 47 48 50 39 36 31 33 28 27 26 24 20 20 21 22 23 23 24 25 27 29 30 30 30 30 30 28 21 20
64 63 57 53 52 52 51 50 53 56 55 43 34 30 31 28 25 24 22 21 22 24 25 26 28 29 29 30 32 32 33 32 32 32 30 23 23 22
68 70 63 58 57 55 54 59 61 57 36 27 26 30 28 27 25 24 23 24 26 28 31 32 32 33 34 35 35 35 36 35 35 33 25 24 25 25
70 74 73 69 70 68 69 63 46 33 31 26 33 32 29 27 26 25 26 28 31 33 34 35 37 38 39 39 40 40 39 39 39 31 27 27 28 28
73 74 74 73 70 65 56 42 37 34 31 37 32 31 30 29 29 29 32 35 37 37 37 41 41 43 44 43 44 44 43 43 40 31 30 30 31 32
74 76 72 64 56 46 41 40 36 34 36 35 35 35 33 34 34 37 41 42 41 43 45 46 48 48 47 48 48 48 48 48 39 34 33 33 33 33
70 63 59 52 49 43 39 38 36 38 37 37 38 39 40 41 43 47 47 45 46 49 52 52 52 53 54 54 54 51 52 51 38 37 35 34 34 35
68 60 54 52 47 42 42 37 38 40 41 41 42 45 47 50 51 50 49 51 54 56 57 58 59 60 60 60 59 56 56 50 39 37 35 35 35 36
67 61 54 52 45 43 41 44 41 43 42 46 50 53 55 54 53 54 56 58 60 61 62 63 64 64 63 62 61 58 57 43 40 37 35 35 36 38
66 59 53 48 44 42 42 41 43 44 47 51 56 58 57 57 58 60 60 63 61 61 63 65 65 66 65 62 61 60 52 40 38 36 36 35 35 35
68 62 56 54 47 44 41 41 45 46 50 56 60 59 59 59 59 57 57 58 59 63 70 69 68 68 68 67 65 61 45 39 35 34 34 35 34 32
69 60 54 46 41 39 43 46 45 47 50 57 56 57 58 58 57 56 56 57 61 66 71 72 70 71 72 72 71 63 45 39 36 35 35 35 35 33
61 56 51 55 57 54 48 46 44 45 49 53 52 54 54 56 55 54 55 59 62 67 72 74 74 75 75 76 74 64 47 41 40 39 38 36 36 34
60 58 58 57 50 47 44 42 43 44 46 50 57 56 51 51 50 52 57 66 65 71 73 77 75 76 77 78 76 67 48 45 45 43 42 40 40 37
70 63 55 48 45 43 39 40 44 46 46 49 57 50 48 48 51 56 68 69 68 75 75 80 81 80 80 80 78 71 49 47 46 45 42 42 42 40

GFSNE_prec_cthk_102.txt.gz
RH
73 73 76 73 65 61 63 64 69 67 68 66 72 66 64 60 57 52 48 45 40 41 42 38 34 34 37 39 39 41 42 40 38 37 36 34 35 36
60 59 58 57 56 57 59 62 68 69 70 68 68 73 72 60 57 53 50 42 42 43 40 34 33 32 35 36 37 37 37 37 37 35 35 35 35 34
62 58 56 58 58 60 63 68 66 68 71 70 73 64 66 59 57 50 41 43 44 41 35 33 32 34 34 36 36 36 36 36 35 34 35 34 33 28
62 59 58 60 58 58 60 65 71 67 70 67 71 65 70 58 50 42 43 46 44 39 36 34 34 35 35 35 34 33 33 33 32 31 31 27 18 15
63 61 61 61 61 61 63 64 67 69 70 71 68 68 65 51 46 42 48 47 39 39 35 35 34 35 33 32 32 30 29 26 21 17 15 15 16 16
62 68 67 67 66 65 64 67 65 71 72 66 64 67 58 51 44 51 49 42 39 39 37 33 30 29 28 28 26 22 17 15 15 15 17 19 20 22
59 60 63 62 64 64 64 64 67 68 70 67 61 60 57 47 53 50 43 37 41 35 33 28 24 21 19 18 18 18 17 18 18 21 23 24 25 25
59 66 66 62 61 63 64 62 61 65 61 60 61 58 54 53 47 42 39 42 35 32 29 21 19 19 20 21 21 21 22 23 25 27 27 27 27 28
52 58 66 67 68 66 63 61 60 58 61 61 59 55 59 47 42 41 34 36 32 26 21 20 21 23 25 26 26 26 27 29 30 30 30 30 30 30
58 59 65 69 70 68 67 61 58 58 56 56 58 60 45 40 40 33 36 34 30 24 22 23 26 28 30 30 30 31 32 33 34 33 33 33 33 28
65 65 66 72 72 71 73 65 60 61 60 63 63 47 39 34 30 30 34 31 29 26 25 28 31 34 33 33 34 35 37 37 38 37 37 37 36 27
68 68 69 71 72 73 74 75 71 76 70 59 42 34 32 30 31 37 34 31 30 28 30 34 35 36 37 38 40 41 41 41 41 42 41 41 38 29
76 75 73 72 73 76 78 75 70 63 48 43 39 38 35 33 39 37 34 33 34 34 37 39 39 39 42 43 45 45 45 45 47 47 47 47 38 30
82 81 80 78 75 73 72 65 57 45 44 43 40 38 43 41 39 38 38 41 42 43 45 44 43 47 48 49 49 49 50 51 52 52 53 51 37 32
87 83 78 75 69 65 59 53 47 42 42 46 40 40 43 43 44 44 47 49 51 52 49 48 52 55 55 55 55 55 55 57 56 57 56 52 37 33
85 81 77 72 64 57 51 48 44 42 38 40 46 45 44 47 49 52 55 56 55 54 54 57 61 63 63 62 60 56 57 57 60 61 60 46 36 33
82 78 76 69 59 51 48 50 44 45 47 46 50 49 49 51 57 60 59 58 57 58 62 67 66 65 65 65 64 61 60 59 62 61 59 40 34 32
85 83 78 66 54 51 57 50 47 43 47 46 47 49 52 58 62 62 61 60 60 62 64 61 62 67 70 67 65 62 61 62 64 63 58 38 33 31
86 81 76 71 67 60 51 48 50 51 53 53 53 51 57 64 67 63 62 62 59 58 59 59 64 68 72 70 66 65 63 64 65 65 58 36 34 33
87 83 72 70 61 59 61 53 45 50 48 52 52 55 59 69 66 63 62 60 58 57 57 59 66 69 74 75 72 67 66 67 68 67 61 39 37 35
84 79 72 71 66 60 55 51 50 48 45 50 51 52 56 64 60 61 59 58 59 55 56 62 71 72 76 79 78 74 69 71 72 72 64 44 39 36
88 75 63 61 62 61 53 52 50 48 50 49 50 49 50 57 62 67 64 60 54 54 59 71 75 74 77 81 80 79 76 73 73 74 67 51 43 39
95 85 72 66 63 58 62 67 63 59 53 50 49 47 46 50 58 62 56 54 52 54 68 77 76 76 77 83 83 82 81 79 78 75 67 56 49 44

GFSNE_prec_cthk_105.txt.gz
RH
77 78 76 75 75 77 81 79 78 75 79 77 72 73 72 75 77 76 66 61 55 54 47 43 43 40 34 34 42 49 56 56 52 47 42 40 34 32
69 68 65 65 63 63 66 65 67 70 76 69 72 78 75 86 75 69 71 60 54 49 43 44 42 35 34 35 37 39 39 39 40 39 36 33 32 31
66 65 65 64 65 65 68 67 73 73 70 74 77 76 76 78 77 68 71 58 53 43 45 43 37 34 35 36 35 36 37 37 37 36 34 32 31 30
71 69 69 71 69 71 70 70 72 73 68 75 76 82 77 74 76 70 70 56 47 46 48 40 36 36 35 37 35 34 34 32 33 34 31 30 30 23
72 74 73 70 71 73 74 73 72 74 76 75 74 75 76 80 77 74 64 57 46 49 48 38 36 36 37 38 35 33 32 30 30 30 24 19 16 16
64 67 68 72 73 71 76 74 74 77 76 74 71 75 80 78 74 69 63 54 52 52 43 37 38 38 34 33 32 32 29 26 21 17 15 16 17 19
49 50 53 64 69 70 74 75 74 75 75 74 75 78 82 75 68 66 58 59 54 47 42 36 39 34 31 24 23 22 20 19 18 18 19 21 24 25
53 53 53 54 56 61 71 73 73 70 71 72 73 72 69 68 67 62 60 56 48 42 38 38 35 28 24 19 20 21 22 21 22 23 25 27 28 28
55 54 54 56 58 58 61 68 75 74 75 72 70 67 66 66 66 67 59 48 44 43 36 37 28 27 23 22 23 26 26 27 28 29 31 32 32 31
56 56 59 59 60 62 62 68 73 73 74 72 66 66 65 64 64 58 51 47 48 41 33 30 28 27 25 26 29 31 31 31 33 35 36 36 35 35
62 63 65 64 65 67 66 68 74 77 73 71 68 65 66 67 56 46 42 46 43 35 36 31 30 31 29 32 34 35 34 37 39 40 39 38 38 39
67 69 72 73 71 71 71 73 73 78 77 75 73 75 76 58 48 42 41 40 34 37 37 33 34 33 34 36 37 37 39 42 44 43 43 43 43 43
70 72 75 78 78 78 78 75 76 75 76 76 71 62 55 46 44 39 37 36 41 43 36 36 37 38 40 41 40 41 45 47 48 48 48 48 48 48
75 81 81 83 86 84 81 77 76 73 73 68 56 46 42 45 41 40 38 44 43 42 41 43 43 45 47 45 46 48 52 54 55 54 54 53 52 53
80 84 86 88 88 84 78 70 69 67 61 56 49 43 46 47 43 47 47 45 47 48 49 51 52 53 50 51 54 57 60 59 59 58 58 57 56 56
82 86 84 85 86 81 77 70 64 57 52 48 44 50 52 48 45 51 49 54 54 55 57 58 58 56 57 61 63 61 61 62 62 61 61 59 60 59
86 85 83 81 84 79 70 63 58 54 47 44 49 45 45 48 52 49 55 57 61 62 63 61 60 65 67 66 63 62 64 63 62 63 62 61 60 60
91 87 84 82 84 74 65 63 55 47 47 49 48 47 52 60 57 59 60 63 66 66 64 64 68 68 61 59 63 68 67 63 63 63 64 64 61 58
92 91 89 91 84 70 62 55 56 59 56 59 56 52 55 52 57 60 63 69 70 67 65 65 62 60 59 60 67 71 69 67 67 68 67 67 66 59
92 90 87 86 79 74 74 72 71 63 57 53 53 59 59 62 59 61 69 75 70 69 65 59 60 59 59 61 71 73 74 72 72 71 70 71 70 68
93 93 90 83 73 76 69 62 61 58 51 53 55 56 54 61 58 61 72 73 67 66 62 60 61 58 59 66 74 74 75 76 74 75 75 75 73 72
88 93 93 86 75 74 74 67 61 64 64 57 55 55 51 55 55 56 60 64 67 75 74 70 61 60 59 71 78 76 79 76 74 77 78 80 79 77
70 77 86 88 78 70 68 73 72 59 53 51 49 49 48 49 49 50 51 54 61 75 67 56 56 62 61 76 79 79 81 82 78 77 78 80 80 77

GFSNE_prec_cthk_108.txt.gz
RH
61 69 69 69 70 71 77 82 88 88 83 83 82 80 87 79 80 82 79 81 76 72 63 57 51 48 47 41 40 50 60 70 76 56 55 46 42 36
65 62 62 64 66 66 66 68 71 73 78 77 79 78 77 78 81 84 82 82 81 76 67 58 48 46 47 37 33 48 58 55 56 54 49 43 40 32
58 59 61 65 70 72 70 70 69 80 79 86 86 90 79 88 90 80 84 80 75 73 60 56 49 48 43 35 34 37 43 46 45 44 40 37 33 29
52 59 65 69 73 75 76 81 81 82 82 82 86 85 84 81 83 90 79 83 87 69 62 55 51 47 38 36 36 37 35 36 35 36 34 34 31 28
45 48 51 56 62 66 70 75 81 83 83 85 88 88 86 83 83 80 81 82 77 71 62 57 52 44 42 39 38 37 37 35 34 31 31 31 28 21
45 46 47 47 47 48 52 61 72 80 82 82 85 85 86 83 80 84 88 91 83 73 60 62 55 46 42 42 41 42 35 33 31 28 26 21 17 16
47 49 48 48 50 52 54 56 57 65 72 81 86 82 84 83 81 81 89 77 80 72 70 64 54 46 44 40 40 37 35 28 24 20 19 18 18 20
48 49 50 50 51 53 56 57 57 61 64 67 76 84 83 84 83 84 77 74 73 69 65 57 50 46 39 35 30 27 25 20 21 22 22 23 25 27
48 49 50 50 50 53 56 58 59 61 61 65 71 80 81 81 79 76 76 74 72 73 60 51 45 39 36 37 26 28 24 23 25 26 27 28 30 31
48 50 51 53 55 57 60 62 62 63 65 66 72 79 82 82 73 72 71 72 68 59 55 46 40 41 32 32 30 30 27 29 31 31 31 33 35 36
53 53 54 55 59 62 65 68 70 68 68 69 73 78 80 78 76 69 70 65 54 52 52 50 45 36 33 34 35 34 33 35 36 35 36 39 40 40
57 57 59 60 63 68 71 71 74 74 73 74 76 81 83 77 77 76 70 54 47 49 46 50 39 40 40 40 40 37 39 40 39 39 42 43 44 44
62 61 61 64 67 72 76 76 79 80 79 77 74 75 76 85 90 74 55 50 43 44 42 39 39 45 43 43 41 42 44 45 43 46 47 49 49 49
66 66 65 67 71 75 79 82 82 81 80 77 73 68 70 66 58 49 54 49 44 41 41 47 49 46 46 47 46 48 49 49 50 52 54 54 53 53
69 69 71 72 74 78 80 83 82 79 75 71 66 61 58 57 52 45 47 46 48 44 47 51 53 51 54 54 55 55 55 56 59 60 58 56 56 55
73 76 77 76 74 74 78 79 78 76 73 68 62 59 52 49 45 49 51 50 55 52 52 56 57 59 60 61 61 62 64 66 66 62 60 60 58 56
78 80 80 82 79 73 79 76 75 73 67 62 58 52 49 46 50 60 53 53 60 56 62 62 62 66 65 64 66 66 64 65 67 66 66 63 58 58
80 83 85 86 82 78 80 75 68 66 64 62 55 49 46 47 57 56 55 56 56 61 64 65 69 67 66 70 70 63 59 62 69 70 67 64 61 60
81 84 87 87 83 86 86 77 71 67 64 57 50 48 56 58 53 61 62 61 66 66 67 75 70 69 73 71 64 59 56 62 71 74 71 68 66 60
75 82 86 89 85 83 79 72 69 63 60 60 58 60 59 60 58 62 59 65 66 67 77 77 74 71 67 64 64 58 57 62 71 75 75 73 71 68
65 70 76 81 87 85 80 73 74 76 74 72 71 59 56 53 57 66 66 67 65 74 80 76 70 68 66 68 66 61 61 65 73 76 79 77 74 72
63 65 70 70 72 78 76 71 77 73 65 62 60 54 59 61 64 59 60 65 63 72 75 71 73 75 78 78 67 63 64 64 72 77 82 79 77 76
69 68 68 69 70 69 67 64 70 80 80 67 66 68 62 56 52 56 52 57 62 62 64 65 68 77 76 64 62 64 66 69 74 80 82 82 82 80

GFSNE_prec_cthk_111.txt.gz
RH
47 49 53 56 55 54 58 61 62 68 68 73 74 76 74 81 89 98 90 88 84 89 84 84 71 64 65 53 47 49 46 58 69 69 60 64 56 44
51 49 40 43 50 52 56 59 63 66 66 68 71 73 83 84 85 85 83 91 94 92 89 80 78 73 60 53 47 57 51 56 62 68 70 63 48 44
37 38 40 42 43 45 50 55 63 69 72 77 82 86 86 90 90 88 90 98 95 94 88 82 77 64 64 57 52 42 50 56 63 61 57 47 44 43
35 36 37 39 40 42 44 45 48 55 58 66 73 76 81 86 88 89 92 93 95 95 85 90 82 64 66 64 51 37 41 49 49 47 47 45 43 34
34 34 34 36 38 39 40 42 43 47 50 55 56 63 77 83 88 89 92 92 87 83 87 86 82 70 69 63 46 39 46 43 47 44 43 35 32 32
34 35 35 37 38 40 41 42 43 47 50 55 57 59 64 69 82 86 90 90 91 92 93 88 85 75 72 66 50 46 44 42 45 42 32 30 30 27
36 37 38 39 40 41 42 42 43 48 51 54 57 59 65 69 78 82 83 86 89 91 92 83 82 82 78 64 51 48 47 44 45 38 32 26 22 19
40 40 40 40 40 40 41 42 46 50 51 56 59 61 65 68 71 79 86 89 84 91 88 80 79 78 69 56 47 47 41 43 37 35 24 21 21 22
41 38 39 42 43 43 43 45 48 52 56 59 63 63 64 69 72 80 82 89 82 79 80 77 78 72 63 52 47 41 35 29 28 28 24 25 27 27
40 40 43 44 46 45 47 50 53 57 60 64 67 68 67 69 71 79 84 88 84 77 76 75 67 61 51 44 34 35 40 32 36 31 30 33 32 31
45 43 44 47 48 48 51 53 56 60 66 68 70 72 71 71 73 78 80 82 80 76 74 67 56 50 43 39 42 38 40 40 38 36 38 39 37 36
49 48 50 51 54 54 55 58 61 64 70 72 74 76 76 76 78 78 88 82 83 77 62 59 50 47 49 47 41 42 40 44 41 41 43 43 41 41
55 55 55 56 56 57 58 61 63 67 73 76 78 79 78 78 79 81 82 88 91 69 52 48 50 49 48 46 49 46 48 47 43 45 47 46 46 47
58 58 58 59 59 59 61 65 67 71 74 76 79 78 75 70 66 70 85 85 66 54 53 46 42 48 43 48 53 48 50 48 48 52 52 52 52 54
62 61 61 63 62 63 64 67 70 70 71 73 74 75 75 72 65 60 62 55 51 61 51 46 45 48 56 55 50 52 55 54 57 57 58 61 61 60
64 63 62 65 67 66 64 67 72 73 69 69 70 72 70 66 62 54 56 49 43 50 58 54 48 53 60 58 60 61 61 64 67 68 68 67 66 62
62 63 65 69 72 72 69 66 74 72 71 71 68 67 64 60 58 52 50 46 52 55 61 60 58 60 65 63 65 67 70 72 67 68 71 70 67 64
66 68 69 72 74 75 73 70 72 70 70 67 64 63 61 56 52 49 50 56 61 60 59 65 63 69 66 70 74 72 75 73 66 65 70 71 67 67
66 67 70 72 73 75 74 78 78 71 68 64 66 67 60 56 52 46 53 62 62 59 61 63 67 68 75 75 72 78 77 70 63 60 61 70 72 71
66 65 67 68 68 69 69 72 74 71 65 62 61 60 57 52 50 54 56 53 60 63 66 71 69 75 78 72 76 77 70 66 63 59 61 70 75 75
69 65 61 60 62 65 67 65 66 65 68 70 67 62 63 62 61 62 62 54 59 60 65 69 69 82 80 80 77 72 73 79 72 65 64 66 73 79
72 67 66 65 65 67 67 65 62 55 57 62 64 66 66 67 65 61 60 60 68 69 73 73 75 87 76 78 80 82 82 79 67 66 69 70 74 80
76 71 70 70 71 70 69 70 70 64 55 56 61 62 62 62 62 60 58 60 70 63 63 70 70 72 74 74 75 84 83 75 75 76 73 68 73 83

GFSNE_prec_cthk_114.txt.gz
RH
48 48 48 47 47 41 40 43 44 46 48 54 58 62 66 70 75 78 85 86 89 89 88 93 94 89 79 77 67 64 53 52 74 67 73 72 75 58
47 48 46 37 34 34 34 35 36 40 42 45 49 54 64 67 72 80 82 87 89 92 92 98 97 95 86 77 70 64 66 59 76 67 71 77 68 65
41 37 34 31 31 30 32 33 35 37 39 40 42 45 48 57 60 71 75 78 88 90 97 95 96 94 86 87 70 71 74 68 67 68 72 70 66 67
38 35 31 30 31 31 31 32 32 32 32 39 39 43 45 48 52 56 63 69 80 85 91 92 95 92 91 86 76 74 72 74 66 62 68 66 66 64
38 34 31 32 32 32 33 34 33 32 35 35 37 41 48 50 54 58 63 68 76 85 88 91 89 93 94 87 77 75 76 63 62 59 68 63 67 53
38 34 32 32 32 35 35 35 37 36 34 37 40 42 46 50 54 57 60 66 75 78 87 94 94 96 96 88 85 81 75 63 48 58 57 55 55 44
40 35 32 34 36 36 36 34 36 35 36 37 43 46 49 52 60 62 67 70 73 79 81 85 91 93 94 90 85 88 77 61 51 49 46 47 44 31
43 36 36 37 36 37 39 37 38 37 36 41 46 50 53 56 62 64 67 70 73 78 84 87 85 89 91 86 85 87 67 62 53 54 43 43 32 24
41 38 37 37 39 40 39 40 41 40 42 48 49 52 56 59 64 68 68 70 71 78 81 92 88 84 85 83 81 70 60 56 53 43 43 34 33 26
43 39 41 43 45 42 41 41 44 45 46 50 51 54 58 62 65 69 71 71 74 78 81 89 90 82 79 77 69 64 45 39 40 37 35 29 33 30
42 44 46 47 48 46 46 47 48 49 49 50 53 57 60 65 69 72 74 74 76 80 83 91 84 79 73 62 61 47 39 37 44 44 35 41 36 36
49 50 52 55 52 49 55 53 53 52 51 52 57 60 64 67 73 77 78 77 78 82 84 81 82 73 65 50 46 43 41 40 49 46 49 45 40 42
55 56 57 56 57 58 57 56 55 54 55 56 58 61 66 71 79 82 82 79 79 81 85 76 69 64 58 41 47 52 51 46 46 49 51 46 44 48
62 58 59 60 61 62 61 57 55 57 59 58 61 66 69 70 74 79 82 84 82 88 94 83 60 47 49 47 54 53 53 57 50 52 53 47 49 52
70 62 64 63 63 63 60 59 57 59 59 59 62 64 68 70 76 76 72 71 73 84 75 63 54 51 46 45 46 46 55 59 54 57 53 53 56 57
69 63 60 61 64 63 61 57 57 59 60 61 62 64 66 67 70 72 68 62 60 57 50 56 56 48 46 48 54 59 62 58 57 60 59 62 65 67
65 61 59 62 64 63 64 61 59 58 62 60 61 65 66 66 66 67 64 56 54 55 49 54 58 59 52 52 62 65 61 63 65 66 69 71 72 72
63 62 63 65 67 66 66 65 63 60 62 61 60 61 60 60 62 63 61 54 50 53 51 54 59 56 60 59 61 67 68 71 74 77 76 71 72 74
68 67 67 66 65 64 66 69 62 64 66 61 60 58 60 62 63 56 56 54 48 51 57 62 65 65 67 68 71 71 78 77 81 86 76 68 65 69
72 70 70 68 65 63 63 65 61 59 58 57 52 55 58 59 55 54 56 51 52 61 65 62 59 57 67 71 74 79 79 82 85 77 72 67 65 65
77 75 75 71 68 65 62 60 61 60 58 54 53 54 55 55 57 54 48 49 52 57 57 63 64 71 73 72 78 80 77 82 78 75 78 82 75 71
81 82 81 77 74 71 64 64 65 67 63 57 52 50 50 54 57 60 62 58 62 65 61 56 64 68 74 75 84 88 85 80 78 80 84 82 70 72
85 86 86 86 80 77 74 70 70 70 70 70 63 53 55 56 50 49 54 60 62 61 61 63 73 76 84 80 88 92 80 81 88 87 82 80 81 79

GFSNE_prec_cthk_120.txt.gz
RH
73 68 58 49 49 53 46 39 39 32 31 34 32 34 36 36 33 32 35 38 44 50 55 56 60 60 70 74 72 79 86 82 77 71 69 75 92 96
75 62 53 51 49 48 43 34 28 28 30 31 31 31 31 31 30 33 35 37 40 48 52 57 59 61 64 75 75 77 79 78 82 84 81 83 87 95
68 58 53 48 47 42 35 32 29 29 31 32 31 30 31 32 33 35 37 39 41 45 52 56 60 63 66 69 71 75 74 79 89 95 93 95 97 93
64 58 53 49 41 39 35 33 30 30 31 30 29 28 29 30 31 34 36 36 42 44 48 52 58 60 68 73 74 72 76 84 91 97 99 97 95 92
66 59 52 49 45 41 36 34 33 32 30 29 29 29 29 29 31 32 37 38 39 43 48 48 55 60 68 71 80 78 76 83 88 92 94 94 96 95
62 56 55 54 48 42 37 37 35 34 33 30 30 32 32 33 33 36 39 44 46 47 47 52 62 64 69 73 77 77 79 85 89 94 97 95 97 96
60 58 56 54 50 42 40 40 37 35 33 34 35 33 34 34 35 38 42 46 49 49 53 56 62 67 72 75 76 76 80 85 92 95 96 94 95 94
63 61 57 56 50 44 42 40 38 35 36 38 38 39 39 39 39 40 45 47 50 52 57 62 68 69 73 76 78 76 81 90 94 96 98 96 89 74
66 62 56 52 47 44 42 40 37 37 39 40 44 43 40 40 42 44 48 52 52 56 58 65 68 72 75 77 79 81 85 86 89 93 97 96 82 65
63 60 56 52 48 45 43 40 40 41 43 45 47 48 44 42 42 44 49 53 54 57 61 64 70 73 77 78 80 83 84 86 86 89 96 87 75 62
63 59 56 52 51 46 43 44 43 45 47 49 51 50 49 49 49 49 49 52 54 59 64 67 75 78 80 78 81 83 82 83 84 80 79 64 58 51
62 60 55 52 50 47 46 47 48 50 53 53 54 53 51 53 55 53 55 55 58 63 67 74 80 84 83 81 81 82 80 80 72 62 54 45 46 47
65 62 59 57 53 52 51 50 51 54 57 58 57 56 56 55 53 54 56 58 62 64 72 77 85 89 86 84 81 67 71 65 60 56 48 47 45 45
64 63 63 61 61 59 59 59 56 59 63 61 61 58 58 55 55 55 58 56 61 68 77 83 90 91 89 85 68 67 60 48 46 49 46 41 43 55
71 69 68 69 67 66 66 63 66 66 66 63 61 55 52 50 53 52 54 57 60 63 71 84 93 93 92 92 76 60 59 50 42 47 55 57 56 52
78 78 77 77 78 73 69 69 69 70 66 62 58 55 51 52 53 49 49 51 55 60 63 72 81 84 92 93 72 55 47 46 54 56 57 59 62 58
87 85 86 86 86 79 71 71 70 68 67 66 59 55 54 52 48 48 49 51 53 54 57 62 64 68 72 68 55 51 50 49 51 53 53 59 62 64
98 97 94 92 90 84 78 73 72 69 69 65 64 60 57 52 48 46 43 46 47 49 53 56 58 59 57 51 52 58 56 51 49 51 56 63 66 70
97 97 97 93 91 89 85 80 77 72 71 67 63 64 63 55 47 44 42 44 45 50 53 55 55 59 64 57 56 62 60 60 61 65 65 69 71 72
98 98 98 97 95 88 88 86 83 77 72 70 67 63 63 58 49 43 41 40 41 45 45 47 48 51 56 58 57 62 64 63 65 67 69 74 83 87
98 98 98 94 93 93 92 89 88 86 81 76 72 69 66 61 55 50 44 42 40 40 40 42 45 53 52 54 59 66 70 71 72 73 77 85 88 90
97 97 97 96 97 97 95 92 90 89 86 83 82 82 79 72 67 56 50 50 51 46 42 41 39 40 44 57 66 70 72 69 68 72 80 88 91 89
96 96 97 98 98 97 97 96 94 94 90 88 87 86 84 82 81 73 60 58 58 53 50 48 48 45 43 46 51 58 70 76 82 81 82 86 85 86

GFSNE_prec_cthk_123.txt.gz
RH
82 82 72 66 67 57 48 47 44 41 34 31 32 32 32 30 28 26 26 29 32 32 35 38 42 46 49 52 56 59 62 63 62 63 65 67 77 93
85 85 78 70 63 57 48 46 42 33 30 29 29 29 28 26 26 26 27 29 31 32 35 39 44 50 50 50 50 56 59 61 61 59 63 65 70 91
87 85 77 74 58 50 46 43 36 34 30 29 28 28 28 27 26 27 28 31 33 33 36 42 47 50 50 52 54 58 60 57 60 64 67 86 85 94
86 85 86 73 60 52 46 40 37 36 34 32 30 28 27 27 26 26 26 31 33 34 33 41 43 49 51 52 57 57 58 60 62 67 81 85 91 97
87 89 88 74 61 51 48 45 42 39 35 34 32 31 29 27 29 28 29 32 35 39 40 42 49 53 51 50 57 64 63 63 67 66 77 88 98 98
93 92 87 73 62 56 53 51 47 43 38 35 35 32 31 32 31 31 32 34 37 41 44 49 53 55 56 55 57 64 63 66 67 70 73 84 90 95
96 86 79 72 68 63 58 56 52 48 42 38 37 35 35 34 34 35 37 39 39 43 46 51 54 59 58 60 66 67 66 68 67 72 77 83 92 97
88 83 77 73 69 64 59 57 53 47 42 38 36 36 36 36 38 39 40 40 42 45 49 54 56 57 63 66 68 71 71 71 70 77 85 89 93 95
83 77 75 73 66 61 58 55 50 44 40 37 37 38 39 40 41 42 43 44 46 47 50 55 59 60 62 66 66 73 77 75 74 79 87 89 93 96
72 73 72 71 68 66 58 53 47 43 40 39 40 41 42 45 45 46 46 47 48 51 55 54 57 61 64 66 68 73 76 76 77 80 85 89 92 95
72 73 74 71 68 62 56 51 47 43 43 42 43 45 47 48 49 51 52 53 53 55 60 56 60 62 67 68 71 80 80 78 76 81 84 87 94 88
73 69 70 68 65 61 56 51 48 47 46 48 48 50 51 51 53 54 55 57 58 60 62 59 60 66 65 71 82 85 87 80 80 78 83 82 83 68
71 72 74 72 68 62 58 56 56 54 52 51 54 56 58 58 59 59 58 58 59 63 64 66 68 71 72 81 84 85 87 74 78 74 71 65 58 52
78 77 74 72 71 67 64 61 59 58 57 58 60 62 64 65 64 62 61 58 56 53 61 65 67 72 76 85 87 88 73 72 63 62 57 58 50 50
76 76 75 72 72 71 70 70 66 65 64 65 65 65 64 63 59 56 55 54 53 53 55 60 67 69 78 86 89 93 74 59 64 49 47 49 49 41
82 81 81 80 77 79 80 77 75 73 73 71 71 67 63 61 57 56 54 54 50 49 50 54 57 64 71 80 86 94 88 65 54 50 46 48 53 56
94 91 89 89 90 90 89 86 85 85 76 75 76 72 66 60 61 57 53 49 49 49 49 47 49 56 61 65 73 83 67 54 46 47 48 49 60 59
98 96 97 97 97 97 97 95 91 90 86 79 77 72 72 62 62 60 55 48 45 45 42 42 43 47 51 53 60 64 55 50 50 51 52 53 56 59
98 99 98 99 99 99 98 98 97 94 91 84 76 78 70 66 64 59 52 49 46 43 43 45 44 44 46 47 52 52 50 56 61 56 54 53 54 58
97 98 98 98 98 98 98 98 98 94 90 87 83 79 79 70 66 61 54 48 44 44 44 42 40 40 42 46 55 59 54 62 72 63 59 63 64 70
98 97 98 98 98 98 98 99 98 94 91 88 86 89 86 78 71 66 60 52 51 47 41 39 38 41 42 44 41 40 54 59 66 66 66 69 72 74
96 97 98 98 98 98 98 98 97 96 94 92 94 93 93 87 80 77 73 67 62 57 52 45 43 41 40 42 39 35 40 57 66 72 74 76 78 84
96 97 97 98 98 98 98 97 97 97 97 95 97 97 95 89 88 87 85 82 76 70 63 55 52 49 43 41 39 38 43 46 57 63 72 73 75 82